Calls for Service

Disclaimer: This information is not intended to be used as official crime data. This program does not provide information about all crimes, and excludes specific incidents such as sexual assaults and child abuse. The City of Conway Police Department makes every effort to produce and publish current and accurate information. No warranties, expressed or implied, are provided for the data herein, its use, or its interpretation. The services provided are for informational purposes only and should not be relied on for any type of legal action.

Loading calls...
Showing calls from previous 10 days
Call Number Case Number Address Call Time Incident Type
19-0203138 515 HARKRIDER ST 2019-02-18 02:32:18.250 CHECKING VEHICLE
19-0203136 221 E OAK ST 2019-02-18 01:47:04.177 CHECKING PERSON
19-0203135 1725 SWEETSPIRE DR 2019-02-18 01:35:10.177 CHECKING PERSON
19-0203134 1940 MASSEE GARDENS 2019-02-18 01:29:06.647 ALARM
19-0203133 1719 ROBINSON AV 2019-02-18 01:27:53.217 CHECKING VEHICLE
19-0203129 76 MARY LN 2019-02-18 00:50:44.650 CHECKING BUILDING
19-0203128 19-01945 1085 MORNINGSIDE DR 2019-02-18 00:23:18.387 BREAKING OR ENTERING
19-0203127 3700 JEANNA DR 2019-02-18 00:07:40.570 LOUD NOISE-MUSIC
19-0203124 835 S DONAGHEY AV 2019-02-17 23:42:40.030 VEHICLE TOW
19-0203123 3040 PRINCE ST 2019-02-17 23:39:55.650 STALLED VEHICLE
19-0203120 19-01944 3200 TYLER ST 2019-02-17 23:08:02.890 RECKLESS DRIVER
19-0203119 3145 CRESTHAVEN ST 2019-02-17 22:49:10.807 LOUD NOISE-MUSIC
19-0203117 3700 JEANNA DR 2019-02-17 22:29:53.497 SUSPICIOUS VEHICLE
19-0203116 2050 DAVE WARD DR 2019-02-17 22:16:13.400 RECKLESS DRIVER
19-0203115 2715 PRINCE ST 2019-02-17 22:15:40.233 CHECKING VEHICLE
19-0203114 19-01943 580 E DAVE WARD DR 2019-02-17 21:53:20.607 CRIMINAL MISCHIEF
19-0203113 1090 SKYLINE DR 2019-02-17 21:44:26.630 CRIMINAL MISCHIEF
19-0203112 600 SKYLINE DR 2019-02-17 21:18:09.120 AGENCY ASSIST
19-0203111 2300 PRINCE ST 2019-02-17 21:02:45.827 SUSPICIOUS VEHICLE
19-0203110 1320 TORREYSON ST 2019-02-17 20:36:06.393 SUPPLEMENT REPORT CALL
19-0203109 4495 GRAHAM DR 2019-02-17 20:27:44.260 SUSPICIOUS ACTIVITY
19-0203106 19-01941 5135 QUARRY DR 2019-02-17 20:17:29.660 BREAKING OR ENTERING
19-0203104 19-01940 816 HOGAN LN 2019-02-17 19:59:17.840 THEFT OF PROPERTY
19-0203101 1320 TORREYSON ST 2019-02-17 19:37:35.450 SUPPLEMENT REPORT CALL
19-0203100 610 CHERUB DR 2019-02-17 19:37:14.487 SUSPICIOUS PERSON
19-0203098 2535 PEABODY DR 2019-02-17 19:21:38.230 SUSPICIOUS ACTIVITY
19-0203095 2270 MEADOWLAKE RD 2019-02-17 18:52:26.650 LOUD NOISE-MUSIC
19-0203094 500 FARRIS RD 2019-02-17 18:48:22.337 STALLED VEHICLE
19-0203092 350 SALEM RD 2019-02-17 18:19:53.923 ALARM
19-0203091 129 I40WB 2019-02-17 18:17:53.133 AGENCY ASSIST
19-0203090 20 RICHLAND HILLS DR 2019-02-17 18:02:04.193 ALARM
19-0203089 1105 PRAIRIE ST 2019-02-17 17:52:38.073 CIVIL MATTER
19-0203084 633 S COUNTRY CLUB RD 2019-02-17 17:00:07.523 ALARM
19-0203083 1595 SOUTH GERMAN LN 2019-02-17 16:58:42.643 STALLED VEHICLE
19-0203080 19-01938 1900 TYLER ST 2019-02-17 16:34:04.287 CRIMINAL MISCHIEF
19-0203079 1320 SOUTH GERMAN LN 2019-02-17 16:26:04.270 TERRORISTIC THREATENING
19-0203077 1155 SKYLINE DR 2019-02-17 16:17:08.487 TRESPASSING
19-0203075 19-01937 1320 TORREYSON ST 2019-02-17 16:06:10.847 RUNAWAY
19-0203074 4950 SHEPHERDS CREEK DR 2019-02-17 15:43:53.543 ATTEMPT TO CONTACT
19-0203073 116 BARIDON ST 2019-02-17 15:39:38.653 FOUND PROPERTY
19-0203072 2651 BRUCE ST 2019-02-17 15:08:53.380 DOMESTIC DISTURBANCE
19-0203070 4950 SHEPHERDS CREEK DR 2019-02-17 14:52:10.107 HARASSING COMMUNICATIONS
19-0203069 1901 TYLER ST 2019-02-17 14:30:11.027 ATTEMPT TO CONTACT
19-0203068 855 S SALEM RD 2019-02-17 14:29:51.603 BURGLARY
19-0203066 1250 S AMITY RD 2019-02-17 14:06:20.293 ALARM - HOLD UP or PANIC
19-0203065 1620 MIDDLE RD 2019-02-17 14:01:15.653 LOUD NOISE-MUSIC
19-0203064 475 ROBINS ST 2019-02-17 13:58:15.567 LOUD NOISE-MUSIC
19-0203063 132 LOWER RIDGE RD 2019-02-17 13:48:26.740 DISTURBANCE
19-0203062 60 SHADY VALLEY DR 2019-02-17 13:03:27.660 BREAKING OR ENTERING
19-0203060 799 S HOGAN LN 2019-02-17 12:32:34.587 TRAFFIC LIGHT PROBLEM
19-0203057 855 DUWAYNE LN 2019-02-17 12:04:59.163 ALARM
19-0203056 1125 SKYLINE DR 2019-02-17 11:59:58.240 CHECKING VEHICLE
19-0203055 1155 SKYLINE DR 2019-02-17 11:47:28.140 CHECKING VEHICLE
19-0203050 815 E OAK ST 2019-02-17 10:46:42.177 ATTEMPT TO CONTACT
19-0203049 19-01936 380 HARKRIDER ST 2019-02-17 10:24:27.293 THEFT OF PROPERTY
19-0203048 2799 SALEM RD 2019-02-17 09:52:54.110 RECKLESS DRIVER
19-0203046 1901 E OAK ST 2019-02-17 09:44:32.520 RECKLESS DRIVER
19-0203045 815 E OAK ST 2019-02-17 09:43:52.087 ATTEMPT TO CONTACT
19-0203043 1350 WINDSTORM DR 2019-02-17 09:32:38.240 ALARM
19-0203042 200 S ASH ST 2019-02-17 09:27:02.917 SUPPLEMENT REPORT CALL
19-0203041 475 ROBINS ST 2019-02-17 09:25:46.460 CHECKING PERSON
19-0203040 19-01935 100 BROOKSIDE DR 2019-02-17 08:54:21.500 HARASSMENT
19-0203038 3900 DAVE WARD DR 2019-02-17 08:15:34.957 SUSPICIOUS VEHICLE
19-0203037 1360 OLD MORRILTON HWY 2019-02-17 08:14:00.980 HARASSMENT
19-0203033 2325 HERMES DR 2019-02-17 06:51:08.213 911 HANGUP CALL
19-0203029 799 MILL ST 2019-02-17 05:23:57.690 911 HANGUP CALL
19-0203028 675 AMITY RD 2019-02-17 05:16:52.600 ALARM
19-0203025 1 AZALEA LP 2019-02-17 04:44:19.593 LOG VEHICLE
19-0203022 675 AMITY RD 2019-02-17 04:23:56.687 ALARM
19-0203017 19-01933 1695 RACHEL DR 2019-02-17 02:06:36.510 RUNAWAY
19-0203016 2302 COLLEGE AV 2019-02-17 02:01:42.357 ATTEMPT TO CONTACT
19-0203015 530 S DONAGHEY AV 2019-02-17 01:59:48.880 LOUD NOISE-MUSIC
19-0203014 200 S ASH ST 2019-02-17 01:38:29.330 ATTEMPT TO CONTACT
19-0203012 19-01932 200 S ASH ST 2019-02-17 01:19:40.210 THEFT OF VEHICLE
19-0203011 1105 SKYLINE DR 2019-02-17 01:14:20.313 DOMESTIC DISTURBANCE
19-0203010 1700 MILL ST 2019-02-17 01:05:34.090 CHECKING VEHICLE
19-0203009 1735 SOUTHERN HILLS DR 2019-02-17 00:58:55.447 CHECKING VEHICLE
19-0203008 1824 HOGAN LN 2019-02-17 00:43:23.200 SUSPICIOUS PERSON
19-0203007 19-01931 130 HARKRIDER ST 2019-02-17 00:29:32.277 UNKNOWN TROUBLE
19-0203004 2730 DAVE WARD DR 2019-02-16 23:47:59.520 LOUD NOISE-MUSIC
19-0203003 19-01928 3900 DAVE WARD DR 2019-02-16 23:43:55.863 CHECKING VEHICLE
19-0203002 1937 SIMMS ST 2019-02-16 23:38:52.933 ALARM
19-0203001 19-01929 1020 FRONT ST 2019-02-16 23:38:49.733 BATTERY REPORT
19-0202998 1611 E OAK ST 2019-02-16 23:21:03.577 LOUD NOISE-MUSIC
19-0202997 600 E DAVE WARD DR 2019-02-16 23:16:13.320 SUPPLEMENT REPORT CALL
19-0202996 3055 DONNELL RIDGE RD 2019-02-16 23:16:01.653 TRESPASSING
19-0202994 3900 DAVE WARD DR 2019-02-16 22:59:58.720 CHECKING VEHICLE
19-0202991 1914 SIMMS ST 2019-02-16 22:36:08.427 CHECKING VEHICLE
19-0202989 1611 E OAK ST 2019-02-16 22:25:20.240 LOUD NOISE-MUSIC
19-0202986 1440 DAVE WARD DR 2019-02-16 22:09:41.630 SUSPICIOUS ACTIVITY
19-0202984 19-01927 1155 SKYLINE DR 2019-02-16 22:00:08.747 THEFT OF PROPERTY
19-0202983 2100 DAVE WARD DR 2019-02-16 21:47:32.110 COMPUTER CRIMES
19-0202982 924 MAIN ST 2019-02-16 21:42:54.320 ALARM
19-0202981 1620 MIDDLE RD 2019-02-16 21:41:29.783 LOUD NOISE-MUSIC
19-0202980 2805 LONGBOW LN 2019-02-16 21:39:34.233 SHOTS FIRED
19-0202979 1000 GUM ST 2019-02-16 21:33:05.137 SUSPICIOUS PERSON
19-0202978 19-01926 545 E DAVE WARD DR 2019-02-16 21:27:25.817 ACCIDENT - PROPERTY DAMAGE
19-0202977 19-01930 3170 MAJESTIC CIR 2019-02-16 21:26:50.157 RECKLESS DRIVER
19-0202976 19-01925 1205 GUM ST 2019-02-16 21:18:44.290 DOMESTIC DISTURBANCE
19-0202975 1815 ROYAL DR 2019-02-16 21:11:26.193 CHECKING VEHICLE
19-0202974 100 BROOKSIDE DR 2019-02-16 20:57:23.100 DISTURBANCE
19-0202971 875 SKYLINE DR 2019-02-16 20:42:44.863 CHECK ON THE WELFARE
19-0202962 19-01924 600 E DAVE WARD DR 2019-02-16 19:27:02.487 ACCIDENT - PROPERTY DAMAGE
19-0202961 1100 MITCHELL ST 2019-02-16 19:05:45.450 RECKLESS DRIVER
19-0202960 19-01923 1155 SKYLINE DR 2019-02-16 19:04:58.150 TRESPASSING
19-0202958 19-01921 450 SKYLINE DR 2019-02-16 18:33:15.980 ACCIDENT - PROPERTY DAMAGE
19-0202957 101 OAK ST 2019-02-16 18:18:31.533 SUSPICIOUS PERSON
19-0202955 810 ELSINGER BLVD 2019-02-16 18:16:22.053 STALLED VEHICLE
19-0202952 1080 S AMITY RD 2019-02-16 17:34:54.383 ENDANGERING WELFARE OF MINOR
19-0202951 19-01920 1119 MILL ST 2019-02-16 17:34:11.250 BATTERY REPORT
19-0202949 1606 COLLEGE AV 2019-02-16 17:16:14.077 CIVIL MATTER
19-0202948 623 MITCHELL ST 2019-02-16 17:04:35.380 CITIZEN ASSIST
19-0202947 19-01919 504 E OAK ST 2019-02-16 16:46:03.373 ACCIDENT - PROPERTY DAMAGE
19-0202946 799 S HOGAN LN 2019-02-16 16:43:17.577 TRAFFIC LIGHT PROBLEM
19-0202945 1525 CLIFTON ST 2019-02-16 16:23:17.790 DISTURBANCE
19-0202944 19-01917 50 FAIRMONT DR 2019-02-16 16:12:26.220 DOMESTIC DISTURBANCE
19-0202943 1450 PYRAMID DR 2019-02-16 16:07:04.310 PARKING VIOLATION
19-0202942 19-01918 1155 SKYLINE DR 2019-02-16 16:03:09.530 SHOPLIFTING
19-0202941 130 APPLEGATE DR 2019-02-16 15:54:18.953 BREAKING OR ENTERING
19-0202940 760 S HOGAN LN 2019-02-16 15:47:39.543 ATTEMPT TO CONTACT
19-0202939 2019-02-16 15:44:31.173 RECOVERED PROPERTY
19-0202938 601 DAVE WARD DR 2019-02-16 15:18:11.477 TRAFFIC PROBLEM-CONTROL
19-0202937 1601 HOGAN LN 2019-02-16 15:15:04.383 REPOSSESSION
19-0202936 799 S HOGAN LN 2019-02-16 15:13:54.823 TRAFFIC LIGHT PROBLEM
19-0202935 260 S ASH ST 2019-02-16 15:01:58.047 SUSPICIOUS ACTIVITY
19-0202934 805 GRANITE LN 2019-02-16 14:47:54.237 BREAKING OR ENTERING
19-0202933 1750 VILLAGE COMMONS DR 2019-02-16 14:44:10.047 CHECK ON THE WELFARE
19-0202932 2619 W MARTIN ST 2019-02-16 14:39:04.037 SUSPICIOUS ACTIVITY
19-0202930 19-01915 500 SALEM RD 2019-02-16 14:23:37.167 ACCIDENT - PERSONAL INJURY
19-0202929 427 S ASH ST 2019-02-16 14:19:43.290 ATTEMPT TO CONTACT
19-0202928 801 S SALEM RD 2019-02-16 14:18:57.763 RECKLESS DRIVER
19-0202926 2019-02-16 14:17:16.053 ATTEMPT TO CONTACT
19-0202925 1525 CLIFTON ST 2019-02-16 14:13:36.530 ARMED SUBJECT
19-0202924 4460 GRAHAM DR 2019-02-16 13:57:12.380 DOMESTIC DISTURBANCE
19-0202922 1700 CALDWELL ST 2019-02-16 13:47:05.520 CHECK ON THE WELFARE
19-0202921 19-01914 5125 QUARRY DR 2019-02-16 13:40:15.770 BREAKING OR ENTERING
19-0202920 1533 BRUCE ST 2019-02-16 13:26:14.003 SUSPICIOUS ACTIVITY
19-0202919 2200 WASHINGTON AV 2019-02-16 13:21:18.040 SUPPLEMENT REPORT CALL
19-0202918 19-01912 27 WOODLAWN DR 2019-02-16 13:18:43.970 DOMESTIC DISTURBANCE
19-0202915 475 ROBINS ST 2019-02-16 12:49:50.007 CHECKING VEHICLE
19-0202914 801 ELSINGER BLVD 2019-02-16 12:47:22.617 CHECKING VEHICLE
19-0202913 19-01908 1120 EAST GERMAN LN 2019-02-16 12:46:42.010 ACCIDENT - PROPERTY DAMAGE
19-0202912 19-01910 875 CRESTLINER DR 2019-02-16 12:46:08.890 BREAKING OR ENTERING
19-0202911 1700 CALDWELL ST 2019-02-16 12:29:32.027 CHECK ON THE WELFARE
19-0202908 19-01906 880 CRESTLINER DR 2019-02-16 11:47:48.413 BREAKING OR ENTERING
19-0202906 760 S HOGAN LN 2019-02-16 11:27:15.600 SUSPICIOUS PACKAGE
19-0202905 134 HARKRIDER ST 2019-02-16 11:23:47.527 CHECKING BUILDING
19-0202904 19-01905 1266 S AMITY RD 2019-02-16 11:21:31.417 ACCIDENT - PRIVATE PROPERTY
19-0202902 2585 DONAGHEY AV 2019-02-16 11:12:33.603 ATTEMPT TO CONTACT
19-0202900 1117 CLIFTON ST 2019-02-16 11:10:16.413 BARKING DOG COMPLAINT
19-0202899 4 BRANDON CV 2019-02-16 11:06:03.583 ATTEMPT TO CONTACT
19-0202898 19-01904 2200 WASHINGTON AV 2019-02-16 10:57:45.567 TERRORISTIC THREATENING
19-0202897 375 E OAK ST 2019-02-16 10:41:05.303 CHECKING PERSON
19-0202896 2255 STURGIS RD 2019-02-16 10:30:49.210 ATTEMPT TO CONTACT
19-0202895 19-01909 760 S HOGAN LN 2019-02-16 10:27:46.937 BREAKING OR ENTERING
19-0202894 604 4TH AV 2019-02-16 10:25:29.453 DOMESTIC DISTURBANCE
19-0202893 745 FACTORY ST 2019-02-16 10:24:59.347 TRESPASSING
19-0202892 2755 LONGBOW LN 2019-02-16 10:12:52.257 ALARM
19-0202891 19-01902 50 SHADY VALLEY DR 2019-02-16 10:06:16.887 BREAKING OR ENTERING
19-0202890 19-01903 1900 TYLER ST 2019-02-16 10:04:34.970 CHECKING VEHICLE
19-0202889 1105 PRAIRIE ST 2019-02-16 10:01:16.647 ATTEMPT TO CONTACT
19-0202888 19-01900 871 HEATHER CIR 2019-02-16 09:59:46.980 THEFT OF VEHICLE
19-0202887 19-01898 863 HEATHER CIR 2019-02-16 09:49:04.723 BREAKING OR ENTERING
19-0202885 680 MUSEUM RD 2019-02-16 09:46:05.663 SUPPLEMENT REPORT CALL
19-0202883 19-01899 646 S HARKRIDER DR 2019-02-16 09:40:58.967 TRESPASSING
19-0202882 1935 ERBACH ST 2019-02-16 09:37:06.027 CIVIL MATTER
19-0202880 955 E OAK ST 2019-02-16 09:32:33.273 ALARM
19-0202878 19-01895 23 SHADY VALLEY DR 2019-02-16 09:12:46.450 BREAKING OR ENTERING
19-0202877 19-01896 1600 DAVE WARD DR 2019-02-16 09:03:05.813 ACCIDENT - PROPERTY DAMAGE
19-0202876 19-01894 34 SHADY VALLEY DR 2019-02-16 08:49:27.667 BREAKING OR ENTERING
19-0202875 19-01897 2225 RAINTREE DR 2019-02-16 08:32:41.927 FIRE DEPT ASSIST
19-0202873 1325 OLD MORRILTON HWY 2019-02-16 08:31:13.710 CHECK ON THE WELFARE
19-0202872 124 I40EB 2019-02-16 08:24:11.837 STALLED VEHICLE
19-0202871 723 PARKWAY ST 2019-02-16 08:23:59.777 ALARM
19-0202870 19-01893 915 CRESTLINER DR 2019-02-16 08:23:23.850 BREAKING OR ENTERING
19-0202869 1500 MUSEUM RD 2019-02-16 08:16:41.087 ALARM
19-0202867 400 CENTRAL LANDING BLVD 2019-02-16 08:00:59.840 CHECKING VEHICLE
19-0202866 19-01892 888 HEATHER CIR 2019-02-16 07:57:43.417 BREAKING OR ENTERING
19-0202865 19-01891 3535 COPPERWOOD CIR 2019-02-16 07:44:31.480 BREAKING OR ENTERING
19-0202864 766 HARKRIDER ST 2019-02-16 07:41:53.857 ATTEMPT TO CONTACT
19-0202863 19-01890 879 HEATHER CIR 2019-02-16 07:04:50.437 BREAKING OR ENTERING
19-0202862 646 S HARKRIDER DR 2019-02-16 06:39:14.760 SHOPLIFTING
19-0202861 19-01889 1365 MARISSA ST 2019-02-16 05:56:00.170 BREAKING OR ENTERING
19-0202860 19-01888 1710 JACKSON DR 2019-02-16 05:19:39.603 BREAKING OR ENTERING
19-0202859 1690 JACKSON DR 2019-02-16 05:05:59.123 BREAKING OR ENTERING
19-0202857 2019-02-16 03:15:01.437 RECOVERED PROPERTY
19-0202854 2375 DAVE WARD DR 2019-02-16 02:26:09.943 CHECKING PERSON
19-0202853 1090 SKYLINE DR 2019-02-16 02:13:45.523 CHECK ON THE WELFARE
19-0202852 19-01887 1440 DAVE WARD DR 2019-02-16 02:11:06.793 INTOXICATED PERSON
19-0202851 1161 OLD MORRILTON HWY 2019-02-16 02:00:20.200 PARKING VIOLATION
19-0202848 816 E OAK ST 2019-02-16 01:28:42.680 DISTURBANCE
19-0202846 1 CADRON SETTLEMENT PARK RD 2019-02-16 01:21:39.870 CHECKING BUILDING
19-0202844 19-01886 2585 DONAGHEY AV 2019-02-16 00:58:41.493 INTOXICATED PERSON
19-0202843 1501 DONAGHEY AV 2019-02-16 00:34:47.017 ATTEMPT TO CONTACT
19-0202840 1600 WASHINGTON AV 2019-02-15 23:57:53.533 FIRE DEPT ASSIST
19-0202838 2050 DAVE WARD DR 2019-02-15 23:55:49.403 PARKING VIOLATION
19-0202836 2755 DAVE WARD DR 2019-02-15 23:45:11.907 CHECKING VEHICLE
19-0202835 405 S ASH ST 2019-02-15 23:41:00.450 TRESPASSING
19-0202834 19-01884 931 FAULKNER ST 2019-02-15 23:28:13.640 DOMESTIC DISTURBANCE
19-0202833 1525 CLIFTON ST 2019-02-15 23:26:34.440 CHECKING PERSON
19-0202832 2925 PRINCE ST 2019-02-15 23:23:36.910 CHECKING VEHICLE
19-0202831 1220 WILLIAM J CLARK DR 2019-02-15 23:21:49.020 ALARM
19-0202830 1337 SUNSET DR 2019-02-15 23:08:07.317 TRESPASSING
19-0202824 150 SKYLINE DR 2019-02-15 22:45:51.607 ATTEMPT TO CONTACT
19-0202821 2900 DAVE WARD DR 2019-02-15 22:23:23.820 STALLED VEHICLE
19-0202817 19-01883 1350 OLD MORRILTON HWY 2019-02-15 21:57:39.610 ACCIDENT - PRIVATE PROPERTY
19-0202816 19-01881 504 E OAK ST 2019-02-15 21:31:20.647 ACCIDENT - HIT AND RUN
19-0202815 19-01882 760 S HOGAN LN 2019-02-15 21:30:34.253 ALARM
19-0202814 356 FARRIS RD 2019-02-15 21:29:06.440 CHECK ON THE WELFARE
19-0202813 1611 E OAK ST 2019-02-15 21:22:59.980 LOUD NOISE-MUSIC
19-0202811 955 SOUTH GERMAN LN 2019-02-15 21:12:42.790 SUPPLEMENT REPORT CALL
19-0202810 1430 SOUTHERN HILLS DR 2019-02-15 21:11:51.623 ATTEMPT TO CONTACT
19-0202807 1012 E OAK ST 2019-02-15 20:42:15.100 ALARM
19-0202805 1012 E OAK ST 2019-02-15 20:29:54.097 ALARM
19-0202804 19-01879 1501 DONAGHEY AV 2019-02-15 20:24:13.753 ACCIDENT - PROPERTY DAMAGE
19-0202803 855 SALEM RD 2019-02-15 20:22:10.453 ATTEMPT TO CONTACT
19-0202802 1010 MAIN ST 2019-02-15 20:16:17.893 SUSPICIOUS PERSON
19-0202801 1960 RICH SMITH LN 2019-02-15 20:13:45.373 CHECK ON THE WELFARE
19-0202798 1133 CLIFTON ST 2019-02-15 19:47:02.537 CHECKING PERSON
19-0202797 2799 SALEM RD 2019-02-15 19:46:24.440 ATTEMPT TO CONTACT
19-0202794 19-01874 1500 HARKRIDER ST 2019-02-15 19:29:58.873 BREAKING OR ENTERING
19-0202793 19-01877 816 HOGAN LN 2019-02-15 19:27:58.643 THEFT OF PROPERTY
19-0202792 7 COVEWOOD DR 2019-02-15 19:12:57.207 FOUND PROPERTY
19-0202791 2105 DAVE WARD DR 2019-02-15 19:06:31.137 ATTEMPT TO CONTACT
19-0202789 1155 SKYLINE DR 2019-02-15 19:03:08.660 SUPPLEMENT REPORT CALL
19-0202786 905 SALEM RD 2019-02-15 18:52:41.507 ALARM
19-0202785 19-01872 201 SKYLINE DR 2019-02-15 18:49:07.300 ACCIDENT - HIT AND RUN
19-0202782 19-01871 1765 JOSH DR 2019-02-15 18:11:02.900 ACCIDENT - PROPERTY DAMAGE
19-0202781 7 COVEWOOD DR 2019-02-15 18:09:45.947 CHECK ON THE WELFARE
19-0202780 831 NUTTERS CHAPEL RD 2019-02-15 18:09:38.193 ATTEMPT TO CONTACT
19-0202779 19-01870 2102 BRUCE ST 2019-02-15 18:08:26.650 ACCIDENT - PROPERTY DAMAGE
19-0202777 1855 POTTER ST 2019-02-15 17:56:20.200 ALARM
19-0202776 2970 CRAWFORD LP 2019-02-15 17:50:59.790 ALARM
19-0202775 831 NUTTERS CHAPEL RD 2019-02-15 17:45:58.350 LOUD NOISE-MUSIC
19-0202774 133 DAVIS ST 2019-02-15 17:33:25.630 DOMESTIC DISTURBANCE
19-0202772 2015 BELLINGRATH GARDENS 2019-02-15 17:07:24.963 SUPPLEMENT REPORT CALL
19-0202771 301 E DAVE WARD DR 2019-02-15 17:04:38.200 RECKLESS DRIVER
19-0202769 703 E OAK ST 2019-02-15 16:52:50.267 CIVIL MATTER
19-0202766 1545 CHINOOK DR 2019-02-15 16:47:05.520 ATTEMPT TO CONTACT
19-0202763 1701 SALEM RD 2019-02-15 16:32:50.417 STALLED VEHICLE
19-0202762 475 ROBINS ST 2019-02-15 16:24:38.717 TRESPASSING
19-0202761 19-01868 1701 DONAGHEY AV 2019-02-15 16:23:28.733 AGENCY ASSIST
19-0202758 1930 RICH SMITH LN 2019-02-15 16:20:08.647 CHECK ON THE WELFARE
19-0202754 550 SALEM RD 2019-02-15 15:44:51.590 SUPPLEMENT REPORT CALL
19-0202753 427 S ASH ST 2019-02-15 15:35:19.003 ATTEMPT TO CONTACT
19-0202752 1209 E OAK ST 2019-02-15 15:30:08.763 SUPPLEMENT REPORT CALL
19-0202751 580 E DAVE WARD DR 2019-02-15 15:25:03.657 911 HANGUP CALL
19-0202750 19-01866 1651 HAIRSTON AV 2019-02-15 15:23:51.180 FRAUD
19-0202749 1105 PRAIRIE ST 2019-02-15 15:22:26.237 FELONY WARRANT SERVICE
19-0202748 19-01865 1100 MCNUTT RD 2019-02-15 15:20:21.980 ACCIDENT - PROPERTY DAMAGE
19-0202745 1530 E OAK ST 2019-02-15 15:10:19.880 FRAUD
19-0202740 19-01861 1209 E OAK ST 2019-02-15 14:52:48.463 ACCIDENT - PROPERTY DAMAGE
19-0202736 19-01856 1065 CLAYTON ST 2019-02-15 14:39:27.023 THEFT OF PROPERTY
19-0202734 1820 OLD MORRILTON HWY 2019-02-15 14:33:34.977 CIVIL MATTER
19-0202733 701 5TH ST 2019-02-15 14:33:20.483 ATTEMPT TO CONTACT
19-0202727 427 S ASH ST 2019-02-15 14:03:32.247 ATTEMPT TO CONTACT
19-0202726 545 E DAVE WARD DR 2019-02-15 14:00:42.937 ROAD RAGE
19-0202723 1655 S AMITY RD 2019-02-15 13:51:50.287 SUPPLEMENT REPORT CALL
19-0202720 3700 JEANNA DR 2019-02-15 13:41:07.017 ATTEMPT TO CONTACT
19-0202718 1002 E OAK ST 2019-02-15 13:40:06.660 CIVIL STAND BY
19-0202716 19-01855 2525 DONAGHEY AV 2019-02-15 13:30:46.057 THEFT OF PROPERTY
19-0202713 1340 JOYNER DR 2019-02-15 13:22:50.877 ATTEMPT TO CONTACT
19-0202711 475 ROBINS ST 2019-02-15 13:13:27.790 CIVIL STAND BY
19-0202710 19-01854 4 SPRING CIR 2019-02-15 12:58:44.887 ACCIDENT - PROPERTY DAMAGE
19-0202704 766 HARKRIDER ST 2019-02-15 12:20:10.673 ATTEMPT TO CONTACT
19-0202702 400 CENTRAL LANDING BLVD 2019-02-15 11:59:26.940 CHECK ON THE WELFARE
19-0202700 19-01849 1904 HOGAN LN 2019-02-15 11:44:46.987 ACCIDENT - PRIVATE PROPERTY
19-0202698 19-01848 2300 PRINCE ST 2019-02-15 11:21:27.753 ACCIDENT - PRIVATE PROPERTY
19-0202697 1640 E OAK ST 2019-02-15 11:18:19.323 CHECKING VEHICLE
19-0202695 2019-02-15 11:15:53.683 ATTEMPT TO CONTACT
19-0202694 504 E OAK ST 2019-02-15 11:04:17.180 STALLED VEHICLE
19-0202692 41 MIDDLE RD 2019-02-15 10:34:38.383 SERVING SUBPOENA
19-0202691 19-01847 1815 S AMITY RD 2019-02-15 10:33:25.140 ACCIDENT - PROPERTY DAMAGE
19-0202690 1325 OLD MORRILTON HWY 2019-02-15 10:17:52.223 SERVING SUBPOENA
19-0202689 1501 COLLEGE AV 2019-02-15 10:10:33.283 CHECK ON THE WELFARE
19-0202686 19-01845 1405 S DONAGHEY AV 2019-02-15 09:47:51.490 DOMESTIC DISTURBANCE
19-0202685 19-01844 850 OAK ST 2019-02-15 09:43:37.940 THEFT OF PROPERTY
19-0202684 1600 WASHINGTON AV 2019-02-15 09:39:56.437 THEFT OF PROPERTY
19-0202679 19-01843 1000 S AMITY RD 2019-02-15 09:03:16.010 ACCIDENT - HIT AND RUN
19-0202676 2245 KRYSTAL KREEK DR 2019-02-15 08:43:23.540 911 HANGUP CALL
19-0202674 800 S DONAGHEY AV 2019-02-15 08:34:54.583 ARMED SUBJECT
19-0202673 19-01842 2330 SANDERS ST 2019-02-15 08:32:24.137 CRIMINAL MISCHIEF
19-0202672 19-01841 1105 PRAIRIE ST 2019-02-15 08:30:17.900 AGENCY ASSIST
19-0202670 1901 HOGAN LN 2019-02-15 07:55:37.347 CIVIL STAND BY
19-0202669 500 FARRIS RD 2019-02-15 07:47:41.780 RECKLESS DRIVER
19-0202668 1775 OLD MORRILTON HWY 2019-02-15 07:44:34.593 SUPPLEMENT REPORT CALL
19-0202667 820 BILL DEAN DR 2019-02-15 07:42:13.927 CIVIL STAND BY
19-0202664 2131 HARKRIDER ST 2019-02-15 06:37:42.467 CHECKING VEHICLE
19-0202663 2430 QUATTLEBAUM CV 2019-02-15 06:27:58.973 CHECK ON THE WELFARE
19-0202662 2245 KRYSTAL KREEK DR 2019-02-15 06:12:50.957 UNKNOWN TROUBLE
19-0202659 20 KINLEY DR 2019-02-15 04:42:46.317 CHECKING VEHICLE
19-0202658 100 E ROBINS ST 2019-02-15 04:41:11.420 CHECKING VEHICLE
19-0202652 622 4TH AV 2019-02-15 01:46:43.480 THEFT OF PROPERTY
19-0202651 2245 E OAK ST 2019-02-15 01:32:16.147 CHECKING VEHICLE
19-0202650 2955 BECKY RD 2019-02-15 01:21:39.413 HARASSMENT
19-0202649 1025 E SIEBENMORGEN RD 2019-02-15 01:12:24.923 PURSUIT DRILL
19-0202648 213 HWY 64 E 2019-02-15 01:06:58.617 CHECKING VEHICLE
19-0202644 20 KINLEY DR 2019-02-14 23:53:33.133 CHECKING VEHICLE
19-0202639 19-01840 2010 BENTON CV 2019-02-14 23:20:44.913 SUSPICIOUS VEHICLE
19-0202637 207 WILLOW ST 2019-02-14 22:52:00.073 DOMESTIC DISTURBANCE
19-0202636 4100 RALEIGH DR 2019-02-14 22:49:51.297 SUSPICIOUS PERSON
19-0202635 801 ELSINGER BLVD 2019-02-14 22:43:15.147 ALARM
19-0202633 1835 OTT MEMORIAL BLVD 2019-02-14 22:38:13.253 DOMESTIC DISTURBANCE
19-0202631 112 MILL POND RD 2019-02-14 22:05:06.987 SUSPICIOUS VEHICLE
19-0202629 19-01837 501 3RD AV 2019-02-14 21:44:48.603 SUSPICIOUS PERSON
19-0202628 19-01836 1437 SOUTHERN HILLS DR 2019-02-14 21:36:23.813 DOMESTIC DISTURBANCE
19-0202625 1900 HOGAN LN 2019-02-14 21:24:24.837 CIVIL MATTER
19-0202624 801 SOUTH GERMAN LN 2019-02-14 21:20:12.753 UNKNOWN TROUBLE
19-0202623 322 HELEN ST 2019-02-14 21:16:29.800 ATTEMPT TO CONTACT
19-0202622 207 WILLOW ST 2019-02-14 21:09:28.237 DOMESTIC DISTURBANCE
19-0202619 19-01834 2512 BRUCE ST 2019-02-14 20:36:27.740 ACCIDENT - PROPERTY DAMAGE
19-0202616 406 INGRAM ST 2019-02-14 20:03:12.397 ATTEMPT TO CONTACT
19-0202614 3900 DAVE WARD DR 2019-02-14 19:40:16.013 RECOVERED PROPERTY
19-0202613 705 SALEM RD 2019-02-14 19:37:14.053 HARASSMENT
19-0202612 900 E SIEBENMORGEN RD 2019-02-14 19:36:43.680 ROAD RAGE
19-0202611 19-01832 955 COVINGTON WAY 2019-02-14 19:32:20.710 ACCIDENT - PERSONAL INJURY
19-0202610 19-01833 650 SKYLINE DR 2019-02-14 19:29:07.643 ACCIDENT - PERSONAL INJURY
19-0202609 1420 ARAPAHO TRL 2019-02-14 19:12:28.160 SUSPICIOUS ACTIVITY
19-0202607 500 SOUTH GERMAN LN 2019-02-14 19:08:12.210 ATTEMPT TO CONTACT
19-0202605 785 MALLARD LN 2019-02-14 19:02:51.580 FOUND PROPERTY
19-0202604 1300 GUERNSEY DR 2019-02-14 19:01:44.093 ATTEMPT TO CONTACT
19-0202603 850 OAK ST 2019-02-14 18:57:36.583 THEFT OF PROPERTY
19-0202602 475 ROBINS ST 2019-02-14 18:46:43.627 LOUD NOISE-MUSIC
19-0202601 402 HARKRIDER ST 2019-02-14 18:41:59.283 RECKLESS DRIVER
19-0202600 1606 COLLEGE AV 2019-02-14 18:40:10.580 DOMESTIC DISTURBANCE
19-0202599 924 MAIN ST 2019-02-14 18:30:33.610 ALARM
19-0202598 2145 SPRING VALLEY DR 2019-02-14 18:29:58.463 ALARM
19-0202597 1800 CALDWELL ST 2019-02-14 18:20:46.080 CHECK ON THE WELFARE
19-0202596 2007 WIGGLE WORM RD 2019-02-14 18:15:38.760 FRAUD
19-0202594 19-01831 801 ELSINGER BLVD 2019-02-14 18:05:54.737 LOST PROPERTY
19-0202593 2916 ADAM ST 2019-02-14 17:56:28.097 SUSPICIOUS PERSON
19-0202592 19-01830 2050 DAVE WARD DR 2019-02-14 17:52:30.507 ACCIDENT - PROPERTY DAMAGE
19-0202591 1600 WASHINGTON AV 2019-02-14 17:52:22.363 ATTEMPT TO CONTACT
19-0202590 406 INGRAM ST 2019-02-14 17:52:14.220 CIVIL STAND BY
19-0202589 855 AMITY RD 2019-02-14 17:49:33.507 SUSPICIOUS VEHICLE
19-0202588 19-01829 850 OAK ST 2019-02-14 17:31:25.883 THEFT OF PROPERTY
19-0202587 2019-02-14 17:25:55.927 ATTEMPT TO CONTACT
19-0202585 504 E OAK ST 2019-02-14 17:16:13.433 ATTEMPT TO CONTACT
19-0202583 19-01828 1 WASSON RD 2019-02-14 17:01:27.533 ACCIDENT - PERSONAL INJURY
19-0202582 475 ROBINS ST 2019-02-14 16:52:46.737 DOMESTIC DISTURBANCE
19-0202581 19-01827 3900 DAVE WARD DR 2019-02-14 16:37:25.207 THEFT OF PROPERTY
19-0202580 200 W PERSHING BLVD 2019-02-14 16:37:04.100 RECOVERED PROPERTY
19-0202578 8 COLONIAL DR 2019-02-14 16:29:06.203 CHECK ON THE WELFARE
19-0202577 1435 BLUSTERY WAY 2019-02-14 16:28:48.717 LOUD NOISE-MUSIC
19-0202576 2019-02-14 16:24:08.477 CIVIL MATTER
19-0202574 19-01825 1826 HOGAN LN 2019-02-14 16:19:48.860 FRAUD
19-0202573 504 E OAK ST 2019-02-14 16:19:21.513 CHECK ON THE WELFARE
19-0202572 1000 S AMITY RD 2019-02-14 16:16:46.790 SUPPLEMENT REPORT CALL
19-0202571 3100 IRBY DR 2019-02-14 16:13:18.390 ATTEMPT TO CONTACT
19-0202570 955 SOUTH GERMAN LN 2019-02-14 15:55:34.773 HARASSMENT
19-0202564 3100 IRBY DR 2019-02-14 15:30:23.623 SUSPICIOUS PERSON
19-0202562 19-01822 11 BRIERWOOD CIR 2019-02-14 15:20:04.520 BREAKING OR ENTERING
19-0202556 2015 RICH SMITH LN 2019-02-14 15:13:39.307 HARASSING COMMUNICATIONS
19-0202555 19-01824 955 SOUTH GERMAN LN 2019-02-14 15:06:39.150 THEFT OF PROPERTY
19-0202553 19-01823 1500 S AMITY RD 2019-02-14 15:04:57.717 FOUND PROPERTY
19-0202552 19-01816 1105 PRAIRIE ST 2019-02-14 15:02:51.900 MISDEMEANOR WARRANT SERVICE
19-0202550 19-01819 3202 PRINCE ST 2019-02-14 14:57:21.523 ACCIDENT - PROPERTY DAMAGE
19-0202547 19-01815 1155 SKYLINE DR 2019-02-14 14:32:35.270 ACCIDENT - PRIVATE PROPERTY
19-0202544 820 BILL DEAN DR 2019-02-14 14:15:37.830 TERRORISTIC THREATENING
19-0202543 505 CADRON GAP RD 2019-02-14 14:14:53.323 ALARM
19-0202542 19-01813 519 2ND ST 2019-02-14 14:14:34.043 THEFT OF PROPERTY
19-0202536 19-01812 1811 MARTIN ST 2019-02-14 13:44:07.210 DOMESTIC DISTURBANCE
19-0202531 19-01810 855 SALEM RD 2019-02-14 13:32:51.473 ACCIDENT - PRIVATE PROPERTY
19-0202530 19-01809 1622 CHERRY ST 2019-02-14 13:19:41.720 DOMESTIC DISTURBANCE
19-0202528 1230 CLIFTON ST 2019-02-14 13:12:35.993 SUPPLEMENT REPORT CALL
19-0202527 475 ROBINS ST 2019-02-14 13:11:32.640 HARASSING COMMUNICATIONS
19-0202525 19-01811 1005 EDINBURGH DR 2019-02-14 12:43:55.177 BURGLARY
19-0202522 1701 STURGIS RD 2019-02-14 12:31:59.163 TERRORISTIC THREATENING
19-0202521 1960 RICH SMITH LN 2019-02-14 12:29:47.000 ATTEMPT TO CONTACT
19-0202520 7 SUSAN LN 2019-02-14 12:26:47.130 CIVIL STAND BY
19-0202515 1325 OLD MORRILTON HWY 2019-02-14 12:14:22.320 TRAFFIC PROBLEM-CONTROL
19-0202513 530 S DONAGHEY AV 2019-02-14 12:08:13.657 VEHICLE TOW
19-0202512 2205 STOUT ST 2019-02-14 11:57:36.767 ATTEMPT TO CONTACT
19-0202511 999 FARRIS RD 2019-02-14 11:53:44.967 RECKLESS DRIVER
19-0202510 415 S DAVIS ST 2019-02-14 11:52:57.557 CIVIL MATTER
19-0202508 19-01808 1839 TYLER ST 2019-02-14 11:50:10.637 THEFT OF PROPERTY
19-0202499 19-01806 1095 COLLIER DR 2019-02-14 11:20:32.553 LOST-STOLEN LICENSE PLATE
19-0202498 19-01805 1619 WESTLAKE DR 2019-02-14 11:19:36.813 LOST-STOLEN LICENSE PLATE
19-0202495 19-01807 400 AMITY RD 2019-02-14 11:08:59.627 ACCIDENT - PROPERTY DAMAGE
19-0202494 1404 HARDY ST 2019-02-14 10:57:28.480 CHECK ON THE WELFARE
19-0202493 3700 DAVE WARD DR 2019-02-14 10:40:51.213 TRAFFIC PROBLEM-CONTROL
19-0202491 3201 DAVE WARD DR 2019-02-14 10:39:01.497 TRAFFIC PROBLEM-CONTROL
19-0202490 1 BLAKE LN 2019-02-14 10:36:48.663 CHECK ON THE WELFARE
19-0202489 19-01804 1128 HARKRIDER ST 2019-02-14 10:34:09.697 FOUND PROPERTY
19-0202487 4910 CANAL PL 2019-02-14 10:33:10.073 ALARM
19-0202485 2512 COLLEGE AV 2019-02-14 10:31:34.460 911 HANGUP CALL
19-0202479 3305 PEBBLE BEACH DR 2019-02-14 10:17:00.963 SUPPLEMENT REPORT CALL
19-0202478 1340 JOYNER DR 2019-02-14 10:15:00.970 FELONY WARRANT SERVICE
19-0202476 19-01803 817 E SIEBENMORGEN RD 2019-02-14 10:03:08.137 CHECKING PERSON
19-0202470 413 S ASH ST 2019-02-14 09:33:13.470 ATTEMPT TO CONTACT
19-0202467 1111 MAIN ST 2019-02-14 09:25:51.270 CHECKING VEHICLE
19-0202463 1601 HOGAN LN 2019-02-14 09:08:42.350 SUPPLEMENT REPORT CALL
19-0202460 1100 E DAVE WARD DR 2019-02-14 09:00:37.327 RECKLESS DRIVER
19-0202458 150 E SIEBENMORGEN RD 2019-02-14 08:44:32.057 ATTEMPT TO CONTACT
19-0202456 1901 E OAK ST 2019-02-14 08:28:19.967 RECKLESS DRIVER
19-0202454 1650 CHICOT DR 2019-02-14 08:08:14.440 SUPPLEMENT REPORT CALL
19-0202453 19-01801 1891 S DONAGHEY AV 2019-02-14 08:01:17.933 ACCIDENT - PROPERTY DAMAGE
19-0202452 19-01800 500 WATKINS ST 2019-02-14 07:56:40.353 ACCIDENT - PROPERTY DAMAGE
19-0202451 2100 DAVE WARD DR 2019-02-14 07:35:09.300 RECKLESS DRIVER
19-0202450 605 BONNIE LN 2019-02-14 07:35:00.520 DISTURBANCE
19-0202449 4655 GRAHAM DR 2019-02-14 07:23:02.227 ALARM
19-0202446 600 SOUTH GERMAN LN 2019-02-14 05:18:40.077 ALARM
19-0202445 120 I40EB 2019-02-14 05:07:35.450 THEFT OF VEHICLE
19-0202444 805 AMITY RD 2019-02-14 04:12:01.927 SUSPICIOUS PERSON
19-0202442 3935 RUPERT DR 2019-02-14 03:06:30.670 911 HANGUP CALL
19-0202441 19-01799 935 E OAK ST 2019-02-14 02:58:06.193 ALARM
19-0202439 1310 DAVE WARD DR 2019-02-14 02:23:52.673 CHECKING VEHICLE
19-0202438 2712 TIMBERPEG CIR 2019-02-14 02:19:42.823 CHECKING VEHICLE
19-0202436 786 ELSINGER BLVD 2019-02-14 02:00:29.260 ALARM
19-0202434 3930 TAILHOOK DR 2019-02-14 01:26:57.390 REPOSSESSION
19-0202432 530 S DONAGHEY AV 2019-02-14 01:05:54.750 ATTEMPT TO CONTACT
19-0202431 300 S DONAGHEY AV 2019-02-14 01:01:49.690 HARASSMENT
19-0202430 825 OAK ST 2019-02-14 00:59:54.543 CHECKING PERSON
19-0202420 714 FAIRVIEW ST 2019-02-13 23:22:57.533 SUSPICIOUS PERSON
19-0202419 2730 DAVE WARD DR 2019-02-13 23:21:17.083 SUSPICIOUS ACTIVITY
19-0202418 1025 S DONAGHEY AV 2019-02-13 23:12:37.460 PARKING VIOLATION
19-0202417 1555 EXCHANGE AV 2019-02-13 22:51:01.257 DISTURBANCE
19-0202413 4100 RALEIGH DR 2019-02-13 22:24:52.433 SUSPICIOUS PERSON
19-0202412 225 OAK ST 2019-02-13 22:21:27.667 911 HANGUP CALL
19-0202411 1906 MILLWOOD DR 2019-02-13 22:18:13.150 REPOSSESSION
19-0202409 19-01793 2016 DUNCAN ST 2019-02-13 22:05:01.833 ANIMAL BITE
19-0202408 19-01794 1002 E OAK ST 2019-02-13 22:04:33.317 ATTEMPT TO CONTACT
19-0202406 19-01792 700 3RD AV 2019-02-13 21:54:26.847 CRIMINAL MISCHIEF
19-0202405 19 TIMOTHY LN 2019-02-13 21:49:18.480 HARASSING COMMUNICATIONS
19-0202404 13 HILTON DR 2019-02-13 21:28:20.580 SUSPICIOUS PERSON
19-0202402 2302 COLLEGE AV 2019-02-13 21:24:02.947 DOMESTIC DISTURBANCE
19-0202399 19-01790 1345 E OAK ST 2019-02-13 20:39:26.937 CRIMINAL MISCHIEF
19-0202398 1105 PRAIRIE ST 2019-02-13 20:39:07.670 CHECKING PERSON
19-0202396 500 SOUTH GERMAN LN 2019-02-13 20:29:35.053 ATTEMPT TO CONTACT
19-0202395 2225 PRINCE ST 2019-02-13 20:23:17.467 CHECKING VEHICLE
19-0202392 815 E OAK ST 2019-02-13 20:11:58.113 ATTEMPT TO CONTACT
19-0202388 3900 DAVE WARD DR 2019-02-13 19:10:31.000 TRESPASSING
19-0202387 530 S DONAGHEY AV 2019-02-13 19:09:43.827 VEHICLE TOW
19-0202386 2550 MEADOWLAKE RD 2019-02-13 18:57:59.607 TRAFFIC PROBLEM-CONTROL
19-0202384 19-01788 475 ROBINS ST 2019-02-13 18:46:15.307 ATTEMPT TO CONTACT
19-0202383 4510 HAWKINS DR 2019-02-13 18:01:48.393 911 HANGUP CALL
19-0202382 2019-02-13 17:52:56.693 ATTEMPT TO CONTACT
19-0202381 19-01784 124 I40EB 2019-02-13 17:45:41.840 ACCIDENT - PROPERTY DAMAGE
19-0202380 19-01785 2205 STOUT ST 2019-02-13 17:44:38.723 SUSPICIOUS PERSON
19-0202372 355 LEDGELAWN DR 2019-02-13 16:25:10.413 SUSPICIOUS ACTIVITY
19-0202371 19-01780 621 OAK ST 2019-02-13 16:16:55.950 THEFT OF IDENTITY
19-0202370 19-01779 101 OAK ST 2019-02-13 16:11:52.640 ACCIDENT - HIT AND RUN
19-0202369 10 LOWER RIDGE RD 2019-02-13 16:09:57.823 TRESPASSING
19-0202367 19-01782 1360 TORREYSON ST 2019-02-13 15:55:58.583 CHECKING PERSON
19-0202364 301 E DAVE WARD DR 2019-02-13 15:32:51.640 911 HANGUP CALL
19-0202363 4425 UTAH TRL 2019-02-13 15:22:58.883 ALARM
19-0202362 1470 JOYNER DR 2019-02-13 15:20:19.640 PARKING VIOLATION
19-0202361 150 E SIEBENMORGEN RD 2019-02-13 15:14:18.153 ATTEMPT TO CONTACT
19-0202359 1023 MAIN ST 2019-02-13 15:08:00.350 ATTEMPT TO CONTACT
19-0202358 1405 S DONAGHEY AV 2019-02-13 15:05:04.350 ATTEMPT TO CONTACT
19-0202355 1080 PAT'S LN 2019-02-13 14:59:07.247 SUPPLEMENT REPORT CALL
19-0202351 19-01775 301 E DAVE WARD DR 2019-02-13 14:26:49.230 FOUND PROPERTY
19-0202349 2840 DAVE WARD DR 2019-02-13 14:23:34.450 ABUSE
19-0202344 19-01774 1814 HOGAN LN 2019-02-13 13:58:05.000 THEFT OF PROPERTY
19-0202343 3830 SHOCK LP 2019-02-13 13:48:02.057 ATTEMPT TO CONTACT
19-0202341 101 OAK ST 2019-02-13 13:30:56.870 ATTEMPT TO CONTACT
19-0202340 19-01771 1905 OLD MORRILTON HWY 2019-02-13 13:30:37.537 CHECKING VEHICLE
19-0202337 19-01772 2790 ARROW SMITH LN 2019-02-13 13:26:26.607 LOST PROPERTY
19-0202335 1435 BLUSTERY WAY 2019-02-13 13:20:09.007 ATTEMPT TO CONTACT
19-0202334 19-01769 1023 MAIN ST 2019-02-13 13:15:52.133 FORGERY
19-0202332 270 E SKYLINE DR 2019-02-13 13:14:27.970 SUPPLEMENT REPORT CALL
19-0202331 2955 BECKY RD 2019-02-13 13:14:17.160 SUPPLEMENT REPORT CALL
19-0202330 19-01768 3501 COLLEGE AV 2019-02-13 13:10:42.957 THEFT OF PROPERTY
19-0202329 1806 BERRY PLACE DR 2019-02-13 13:09:47.997 ALARM
19-0202328 19-01767 3900 DAVE WARD DR 2019-02-13 12:57:31.890 LOST-STOLEN LICENSE PLATE
19-0202326 1105 PRAIRIE ST 2019-02-13 12:48:47.650 ATTEMPT TO CONTACT
19-0202325 19-01765 1650 CHICOT DR 2019-02-13 12:48:02.660 BREAKING OR ENTERING
19-0202324 19-01763 2845 CARL STUART ST 2019-02-13 12:40:07.183 CRIMINAL MISCHIEF
19-0202320 19-01766 1405 S DONAGHEY AV 2019-02-13 12:24:16.683 BURGLARY
19-0202319 445 WHITNEY WOODS RD 2019-02-13 12:24:09.523 ATTEMPT TO CONTACT
19-0202318 2510 T J DR 2019-02-13 12:23:10.057 ALARM
19-0202312 2001 FLORENCE MATTISON DR 2019-02-13 12:02:19.023 RECKLESS DRIVER
19-0202309 1105 DEER ST 2019-02-13 11:49:43.773 CHECK ON THE WELFARE
19-0202307 19-01760 1105 SKYLINE DR 2019-02-13 11:44:55.580 FRAUD
19-0202306 225 TILK RD 2019-02-13 11:35:16.800 CHECK ON THE WELFARE
19-0202305 800 FACTORY ST 2019-02-13 11:34:12.120 CHECK ON THE WELFARE
19-0202302 19-01757 505 SALEM RD 2019-02-13 11:07:45.577 CRIMINAL MISCHIEF
19-0202301 19-01759 2995 BECKY RD 2019-02-13 11:07:12.673 ATTEMPT TO CONTACT
19-0202299 2975 DALLAS LP 2019-02-13 11:00:02.627 ATTEMPT TO CONTACT
19-0202298 1000 E SIEBENMORGEN RD 2019-02-13 10:57:39.120 ATTEMPT TO CONTACT
19-0202296 1600 WESTLAKE DR 2019-02-13 10:54:22.247 VEHICLE TOW
19-0202293 19-01756 1000 E SIEBENMORGEN RD 2019-02-13 10:19:55.047 HARASSING COMMUNICATIONS
19-0202292 2890 DAVE WARD DR 2019-02-13 10:19:53.470 SUPPLEMENT REPORT CALL
19-0202285 225 TILK RD 2019-02-13 09:48:13.253 DISTURBANCE
19-0202280 1125 WESTFIELD DR 2019-02-13 09:17:47.293 HARASSING COMMUNICATIONS
19-0202276 101 OAK ST 2019-02-13 09:09:35.720 ALARM - BANK
19-0202273 955 COVINGTON WAY 2019-02-13 08:55:19.570 SUSPICIOUS VEHICLE
19-0202272 19-01755 1601 HOGAN LN 2019-02-13 08:55:02.207 ACCIDENT - PRIVATE PROPERTY
19-0202271 19-01754 1155 SKYLINE DR 2019-02-13 08:53:10.933 THEFT OF PROPERTY
19-0202267 1155 SKYLINE DR 2019-02-13 08:32:29.100 CHECK ON THE WELFARE
19-0202262 19-01753 2307 STOUT ST 2019-02-13 08:21:23.850 CRIMINAL MISCHIEF
19-0202260 3210 PEBBLE BEACH DR 2019-02-13 08:13:30.780 CIVIL STAND BY
19-0202259 19-01750 707 ROBINS ST 2019-02-13 08:08:39.663 CHECKING VEHICLE
19-0202258 723 PARKWAY ST 2019-02-13 08:05:51.293 ALARM
19-0202248 1601 TYLER ST 2019-02-13 07:15:56.510 SUPPLEMENT REPORT CALL
19-0202243 500 POLK ST 2019-02-13 03:41:14.813 CHECKING PERSON
19-0202241 150 E OAK ST 2019-02-13 03:33:36.607 CHECKING VEHICLE
19-0202240 150 E OAK ST 2019-02-13 03:31:18.873 CHECKING VEHICLE
19-0202238 127 I40WB 2019-02-13 02:53:06.113 ATTEMPT TO CONTACT
19-0202237 825 OAK ST 2019-02-13 02:30:36.360 CHECKING VEHICLE
19-0202236 835 S DONAGHEY AV 2019-02-13 02:15:57.640 TRESPASSING
19-0202235 500 ASH ST 2019-02-13 02:07:11.633 OPEN DOOR/WINDOW/FENCE
19-0202234 76 MARY LN 2019-02-13 01:51:58.590 OPEN DOOR/WINDOW/FENCE
19-0202232 825 1ST ST 2019-02-13 01:31:34.733 CHECKING PERSON
19-0202231 835 S DONAGHEY AV 2019-02-13 01:03:10.890 VEHICLE TOW
19-0202230 2275 MOIX BLVD 2019-02-13 01:02:23.637 VEHICLE TOW
19-0202227 825 OAK ST 2019-02-13 00:40:24.773 CHECKING PERSON
19-0202225 1325 OLD MORRILTON HWY 2019-02-13 00:24:31.187 CHECKING VEHICLE
19-0202224 1 CADRON SETTLEMENT PARK RD 2019-02-13 00:18:48.530 CHECKING BUILDING
19-0202223 2205 STOUT ST 2019-02-13 00:12:37.560 SHOTS FIRED
19-0202212 1701 HAIRSTON AV 2019-02-12 22:35:39.610 DISTURBANCE
19-0202210 1405 DAVE WARD DR 2019-02-12 22:25:16.917 RECKLESS DRIVER
19-0202209 19-01744 2500 OLD MORRILTON HWY 2019-02-12 22:21:37.877 ACCIDENT - PROPERTY DAMAGE
19-0202208 619 2ND ST 2019-02-12 22:20:18.283 LOUD NOISE-MUSIC
19-0202206 835 S DONAGHEY AV 2019-02-12 21:53:59.227 LOUD NOISE-MUSIC
19-0202203 1355 EXCHANGE AV 2019-02-12 21:21:11.540 ALARM
19-0202201 2100 CALDWELL ST 2019-02-12 21:06:38.980 RECKLESS DRIVER
19-0202200 625 SALEM RD 2019-02-12 21:02:22.170 SUSPICIOUS PERSON
19-0202197 1220 WILLIAM J CLARK DR 2019-02-12 20:26:31.447 ALARM
19-0202196 10 LOWER RIDGE RD 2019-02-12 20:22:03.983 TRESPASSING
19-0202188 2203 LOOKOUT AV 2019-02-12 19:59:12.610 DOMESTIC DISTURBANCE
19-0202187 19-01741 1120 EAST GERMAN LN 2019-02-12 19:55:25.223 LOST PROPERTY
19-0202185 19-01740 225 DAVIS ST 2019-02-12 19:35:34.390 HARASSMENT
19-0202184 1775 OLD MORRILTON HWY 2019-02-12 19:32:08.500 CHECKING PERSON
19-0202183 855 SALEM RD 2019-02-12 19:24:09.770 RECKLESS DRIVER
19-0202181 19-01739 1266 S AMITY RD 2019-02-12 19:16:04.357 CRIMINAL MISCHIEF
19-0202179 1040 S AMITY RD 2019-02-12 19:07:08.167 ALARM
19-0202178 1701 DAVE WARD DR 2019-02-12 19:06:49.977 SUPPLEMENT REPORT CALL
19-0202177 450 SKYLINE DR 2019-02-12 19:05:18.967 RECKLESS DRIVER
19-0202174 205 E OAK ST 2019-02-12 18:10:30.870 CHECK ON THE WELFARE
19-0202173 1750 VILLAGE COMMONS DR 2019-02-12 18:09:10.857 CHECK ON THE WELFARE
19-0202172 1725 CALHOUN DR 2019-02-12 18:06:19.757 OPEN DOOR/WINDOW/FENCE
19-0202170 19-01738 1525 CLIFTON ST 2019-02-12 17:54:39.920 THEFT OF PROPERTY
19-0202169 19-01737 1105 PRAIRIE ST 2019-02-12 17:49:05.733 FOUND PROPERTY
19-0202167 215 GRIFFITH ST 2019-02-12 17:26:14.877 SUSPICIOUS VEHICLE
19-0202166 19-01735 1065 CLAYTON ST 2019-02-12 17:12:51.033 CIVIL MATTER
19-0202165 19-01736 1200 E DAVE WARD DR 2019-02-12 17:10:56.480 ACCIDENT - PROPERTY DAMAGE
19-0202163 19-01733 1775 OLD MORRILTON HWY 2019-02-12 17:03:18.103 THEFT OF PROPERTY
19-0202160 330 STONE MOUNTAIN RD 2019-02-12 16:53:12.930 ATTEMPT TO CONTACT
19-0202158 19-01731 901 FRONT ST 2019-02-12 16:44:47.220 ACCIDENT - PROPERTY DAMAGE
19-0202150 2310 ROBINSON AV 2019-02-12 16:21:55.550 FOUND PROPERTY
19-0202147 34 TUCKER CREEK RD 2019-02-12 16:14:47.330 FIRE DEPT ASSIST
19-0202145 19-01730 1900 TYLER ST 2019-02-12 16:08:25.623 LOST-STOLEN LICENSE PLATE
19-0202144 2100 DAVE WARD DR 2019-02-12 16:04:03.670 TRAFFIC PROBLEM-CONTROL
19-0202142 401 2ND ST 2019-02-12 16:02:45.137 SERVING SUBPOENA
19-0202140 1 CADRON SETTLEMENT PARK RD 2019-02-12 15:56:42.903 ILLEGAL DUMPING
19-0202135 1030 SKYLINE DR 2019-02-12 15:48:18.537 CIVIL MATTER
19-0202134 1301 COUNTRY CLUB RD 2019-02-12 15:45:27.247 CIVIL STAND BY
19-0202131 1525 CLIFTON ST 2019-02-12 15:26:53.197 PARKING VIOLATION
19-0202127 19-01728 150 E SIEBENMORGEN RD 2019-02-12 15:18:28.783 ABUSE
19-0202126 300 S DONAGHEY AV 2019-02-12 15:17:13.280 TERRORISTIC THREATENING
19-0202124 1340 JOYNER DR 2019-02-12 15:08:10.007 ATTEMPT TO CONTACT
19-0202121 1035 SKYLINE DR 2019-02-12 15:04:54.880 CHECK ON THE WELFARE
19-0202120 1700 MUSEUM RD 2019-02-12 14:55:46.800 TRESPASSING
19-0202119 2006 MARILYN DR 2019-02-12 14:52:33.703 ATTEMPT TO CONTACT
19-0202118 206 WILLOW ST 2019-02-12 14:51:42.190 SUSPICIOUS PERSON
19-0202116 50 FAIRMONT DR 2019-02-12 14:48:52.430 BURGLARY
19-0202115 19-01726 150 E OAK ST 2019-02-12 14:46:14.230 ACCIDENT - PRIVATE PROPERTY
19-0202114 3700 JEANNA DR 2019-02-12 14:46:04.527 ATTEMPT TO CONTACT
19-0202110 1340 JOYNER DR 2019-02-12 14:32:47.767 ATTEMPT TO CONTACT
19-0202109 2 GAIL LN 2019-02-12 14:30:44.387 ATTEMPT TO CONTACT
19-0202107 11 GAIL LN 2019-02-12 14:24:59.920 ATTEMPT TO CONTACT
19-0202106 411 S ASH ST 2019-02-12 14:24:56.770 ATTEMPT TO CONTACT
19-0202105 19-01724 2640 PRINCE ST 2019-02-12 14:23:05.977 ACCIDENT - PROPERTY DAMAGE
19-0202103 2310 RAINTREE DR 2019-02-12 14:17:11.387 CRIMINAL MISCHIEF
19-0202102 1800 HAIRSTON AV 2019-02-12 14:13:19.447 CHECKING VEHICLE
19-0202101 1105 PRAIRIE ST 2019-02-12 14:05:37.510 ATTEMPT TO CONTACT
19-0202099 19-01720 605 DAVE WARD DR 2019-02-12 14:03:37.593 ACCIDENT - PROPERTY DAMAGE
19-0202098 610 OAK ST 2019-02-12 13:56:37.280 CIVIL MATTER
19-0202097 19-01721 605 EAST GERMAN LN 2019-02-12 13:56:21.490 THEFT OF VEHICLE
19-0202096 3430 IRBY DR 2019-02-12 13:53:27.830 CHECK ON THE WELFARE
19-0202095 19-01722 1300 GUERNSEY DR 2019-02-12 13:51:45.540 DOMESTIC DISTURBANCE
19-0202093 450 SKYLINE DR 2019-02-12 13:45:44.947 CHECK ON THE WELFARE
19-0202090 1470 SOUTHERN HILLS DR 2019-02-12 13:39:40.950 SUSPICIOUS ACTIVITY
19-0202089 605 1ST AV 2019-02-12 13:36:55.727 FIRE DEPT ASSIST
19-0202088 19-01716 3700 JEANNA DR 2019-02-12 13:32:10.183 THEFT OF PROPERTY
19-0202084 1220 E OAK ST 2019-02-12 13:29:16.880 SUPPLEMENT REPORT CALL
19-0202079 19-01715 1055 HARKRIDER ST 2019-02-12 13:16:44.177 ACCIDENT - PRIVATE PROPERTY
19-0202078 19-01718 1340 NABHOLZ AV 2019-02-12 13:16:18.717 ACCIDENT - PRIVATE PROPERTY
19-0202077 19-01714 601 ELSINGER BLVD 2019-02-12 13:14:53.213 SHOPLIFTING
19-0202075 19-01723 2225 RAINTREE DR 2019-02-12 13:12:03.623 DOMESTIC DISTURBANCE
19-0202074 450 SKYLINE DR 2019-02-12 13:11:54.700 HARASSMENT
19-0202063 1155 SKYLINE DR 2019-02-12 12:49:18.443 CHECKING VEHICLE
19-0202060 19-01710 2901 TYLER ST 2019-02-12 12:27:50.687 ACCIDENT - PROPERTY DAMAGE
19-0202055 1405 S DONAGHEY AV 2019-02-12 11:56:19.830 CIVIL MATTER
19-0202054 607 4TH AV 2019-02-12 11:53:06.763 FIRE DEPT ASSIST
19-0202049 19-01708 835 S DONAGHEY AV 2019-02-12 11:37:01.663 ACCIDENT - PRIVATE PROPERTY
19-0202046 1105 PRAIRIE ST 2019-02-12 11:32:37.897 ATTEMPT TO CONTACT
19-0202045 705 CLUB LN 2019-02-12 11:25:00.563 SUSPICIOUS PERSON
19-0202043 19-01705 545 SALEM RD 2019-02-12 11:18:51.293 FRAUD
19-0202042 19-01706 855 SALEM RD 2019-02-12 11:18:35.397 BATTERY REPORT
19-0202040 717 4TH AV 2019-02-12 11:16:36.120 FIRE DEPT ASSIST
19-0202038 1200 HUNTER ST 2019-02-12 11:02:34.040 CHECKING PERSON
19-0202035 1105 PRAIRIE ST 2019-02-12 10:46:40.017 SUPPLEMENT REPORT CALL
19-0202032 19-01701 355 LEDGELAWN DR 2019-02-12 10:40:13.870 LOST PROPERTY
19-0202031 3100 IRBY DR 2019-02-12 10:38:43.030 VEHICLE TOW
19-0202029 19-01702 605 1ST AV 2019-02-12 10:35:41.710 FIRE DEPT ASSIST
19-0202026 129 I40WB 2019-02-12 10:28:01.980 RECKLESS DRIVER
19-0202021 19-01700 150 E OAK ST 2019-02-12 10:20:55.243 FIGHT
19-0202020 300 S DONAGHEY AV 2019-02-12 10:10:35.363 ASSAULT
19-0202019 1601 TYLER ST 2019-02-12 09:59:01.480 SUPPLEMENT REPORT CALL
19-0202018 450 DAVE WARD DR 2019-02-12 09:55:29.177 VEHICLE TOW
19-0202017 19-01698 1155 WINEBERRY RD 2019-02-12 09:53:52.253 ACCIDENT - PRIVATE PROPERTY
19-0202016 475 ROBINS ST 2019-02-12 09:47:59.723 BURGLARY
19-0202013 2019-02-12 09:38:11.130 RECOVERED PROPERTY
19-0202007 4075 ZACHARY TRL 2019-02-12 09:06:34.563 SERVING SUBPOENA
19-0202006 2565 ZOYSIA 2019-02-12 08:49:25.300 SERVING SUBPOENA
19-0202004 2512 BRUCE ST 2019-02-12 08:40:27.380 TRAFFIC PROBLEM-CONTROL
19-0202002 11 EVE LN 2019-02-12 08:25:56.520 ALARM
19-0202001 825 WILLIAM J CLARK DR 2019-02-12 08:19:25.237 ALARM
19-0201998 2425 DAVE WARD DR 2019-02-12 08:14:23.733 ALARM
19-0201997 220 MERLOT DR 2019-02-12 08:14:08.337 SUSPICIOUS PERSON
19-0201996 4925 SISTINE CHAPEL DR 2019-02-12 08:12:29.510 TRESPASSING
19-0201992 1010 E OAK ST 2019-02-12 07:53:00.423 ALARM
19-0201991 1615 ROBINS ST 2019-02-12 07:50:04.063 SUPPLEMENT REPORT CALL
19-0201989 100 SKYLINE DR 2019-02-12 07:31:04.337 RECKLESS DRIVER
19-0201988 1501 HOGAN LN 2019-02-12 07:25:40.743 STALLED VEHICLE
19-0201985 1430 BLUSTERY WAY 2019-02-12 06:36:00.703 FOUND PROPERTY
19-0201984 5 SHADY VALLEY DR 2019-02-12 05:46:28.667 ALARM
19-0201983 2102 BRUCE ST 2019-02-12 05:40:43.420 TRAFFIC LIGHT PROBLEM
19-0201982 1505 OLD MORRILTON HWY 2019-02-12 05:21:21.120 ALARM
19-0201981 19-01690 2890 DAVE WARD DR 2019-02-12 05:04:58.657 THEFT OF PROPERTY
19-0201980 1065 CLAYTON ST 2019-02-12 04:10:19.467 CHECKING PERSON
19-0201979 1408 CLIFTON ST 2019-02-12 03:53:33.527 REPOSSESSION
19-0201978 621 OAK ST 2019-02-12 03:52:49.720 CHECKING PERSON
19-0201975 835 S DONAGHEY AV 2019-02-12 03:14:48.223 CHECKING VEHICLE
19-0201973 19-01689 1499 MANOR ST 2019-02-12 02:15:49.107 BURGLARY
19-0201972 1575 MARLISE DR 2019-02-12 02:11:38.287 CHECKING VEHICLE
19-0201971 19-01688 2500 DAVE WARD DR 2019-02-12 01:27:05.180 ACCIDENT - HIT AND RUN
19-0201969 2130 RAINWOOD AV 2019-02-12 01:06:30.297 TRESPASSING
19-0201967 401 2ND ST 2019-02-12 00:41:12.910 AGENCY ASSIST
19-0201966 2730 DAVE WARD DR 2019-02-12 00:40:47.120 ATTEMPT TO CONTACT
19-0201963 2125 HARKRIDER ST 2019-02-12 00:00:58.997 CHECKING PERSON
19-0201962 4100 RALEIGH DR 2019-02-12 00:00:44.910 PROWLER
19-0201961 1 CADRON SETTLEMENT PARK RD 2019-02-11 23:59:08.080 CHECKING BUILDING
19-0201959 19-01685 400 S DONAGHEY AV 2019-02-11 23:48:53.497 CHECKING VEHICLE
19-0201957 1325 MUSEUM RD 2019-02-11 23:33:59.940 CHECKING VEHICLE
19-0201951 1705 POTEETE DR 2019-02-11 22:36:04.563 LOUD NOISE-MUSIC
19-0201950 1128 HARKRIDER ST 2019-02-11 22:12:45.627 CHECKING PERSON
19-0201948 19-01683 3130 DAVE WARD DR 2019-02-11 22:00:07.587 ACCIDENT - PROPERTY DAMAGE
19-0201944 813 OAK ST 2019-02-11 21:29:18.180 ALARM
19-0201943 1485 OLD MORRILTON HWY 2019-02-11 21:20:07.167 ATTEMPT TO CONTACT
19-0201941 19-01682 2050 DAVE WARD DR 2019-02-11 21:01:08.173 ACCIDENT - PRIVATE PROPERTY
19-0201939 475 ROBINS ST 2019-02-11 20:40:11.803 PROWLER
19-0201935 100 EAST GERMAN LN 2019-02-11 20:22:54.380 RECKLESS DRIVER
19-0201934 19-01681 401 2ND ST 2019-02-11 20:21:56.830 FORGERY
19-0201933 640 ELSINGER BLVD 2019-02-11 20:08:59.103 ALARM
19-0201932 2540 APPLE BLOSSOM 2019-02-11 20:08:48.433 ATTEMPT TO CONTACT
19-0201931 19-01679 2155 DILLARD DR 2019-02-11 20:08:26.720 TERRORISTIC THREATENING
19-0201930 2101 TYLER ST 2019-02-11 19:56:20.253 TRAFFIC PROBLEM-CONTROL
19-0201929 540 UNITED DR 2019-02-11 19:53:07.000 ALARM - BANK
19-0201926 19-01680 1125 MORNINGSIDE DR 2019-02-11 19:39:34.780 FRAUD
19-0201922 57 FAIRMONT DR 2019-02-11 19:22:32.800 DOMESTIC DISTURBANCE
19-0201919 132 SHAMROCK DR 2019-02-11 18:45:21.737 DOMESTIC DISTURBANCE
19-0201918 475 ROBINS ST 2019-02-11 18:33:46.550 HARASSMENT
19-0201916 19-01674 1030 SKYLINE DR 2019-02-11 18:25:02.670 ACCIDENT - PROPERTY DAMAGE
19-0201915 1030 SKYLINE DR 2019-02-11 18:23:56.960 ACCIDENT - PRIVATE PROPERTY
19-0201910 19-01677 1000 MORNINGSIDE DR 2019-02-11 18:03:23.727 THEFT OF PROPERTY
19-0201908 19-01673 550 SALEM RD 2019-02-11 17:59:05.920 ACCIDENT - PROPERTY DAMAGE
19-0201907 1775 OLD MORRILTON HWY 2019-02-11 17:54:51.573 SUSPICIOUS PERSON
19-0201906 2019-02-11 17:46:12.903 ATTEMPT TO CONTACT
19-0201905 19-01670 605 SALEM RD 2019-02-11 17:42:34.860 ATTEMPT TO CONTACT
19-0201903 12 MEADOWBROOK DR 2019-02-11 17:26:58.760 RECKLESS DRIVER
19-0201902 2270 PLEASANT VALLEY DR 2019-02-11 17:23:33.883 CIVIL MATTER
19-0201901 129 I40WB 2019-02-11 17:15:34.850 CHECK ON THE WELFARE
19-0201899 800 ARTIS LN 2019-02-11 17:00:14.447 WEATHER RELATED CALLS-PROBLEMS
19-0201898 2016 CROSS ST 2019-02-11 16:56:28.620 BURGLARY
19-0201897 125 I40EB 2019-02-11 16:47:05.253 RECKLESS DRIVER
19-0201896 33 MEADOWBROOK DR 2019-02-11 16:42:27.773 ATTEMPT TO CONTACT
19-0201894 500 SOUTH GERMAN LN 2019-02-11 16:29:59.733 FELONY WARRANT SERVICE
19-0201891 19-01667 245 OAK ST 2019-02-11 16:17:14.960 FORGERY
19-0201890 2270 PLEASANT VALLEY DR 2019-02-11 16:14:03.923 ATTEMPT TO CONTACT
19-0201889 2105 MEADOWLAKE RD 2019-02-11 16:07:09.893 RECKLESS DRIVER
19-0201887 1710 S SALEM RD 2019-02-11 16:04:57.430 CHECKING VEHICLE
19-0201886 3200 DONNELL RIDGE RD 2019-02-11 15:57:06.953 TRAFFIC PROBLEM-CONTROL
19-0201885 1201 OAK ST 2019-02-11 15:54:10.720 ATTEMPT TO CONTACT
19-0201883 1155 SKYLINE DR 2019-02-11 15:44:13.220 SUPPLEMENT REPORT CALL
19-0201881 1220 E OAK ST 2019-02-11 15:31:52.837 DISTURBANCE
19-0201880 19-01665 2690 DONAGHEY AV 2019-02-11 15:29:37.570 ACCIDENT - PRIVATE PROPERTY
19-0201879 19-01664 1600 E SIEBENMORGEN RD 2019-02-11 15:28:07.493 DISORDERLY CONDUCT
19-0201877 1500 DECLARATION CV 2019-02-11 15:21:13.360 LOUD NOISE-MUSIC
19-0201876 835 S DONAGHEY AV 2019-02-11 15:19:30.163 THEFT OF PROPERTY
19-0201873 2270 PLEASANT VALLEY DR 2019-02-11 14:57:46.620 CIVIL MATTER
19-0201872 19-01661 1001 MUSEUM RD 2019-02-11 14:56:39.460 ACCIDENT - PROPERTY DAMAGE
19-0201871 19-01663 125 I40EB 2019-02-11 14:49:13.737 ACCIDENT - PERSONAL INJURY
19-0201870 3899 S REEDY RD 2019-02-11 14:48:49.990 STALLED VEHICLE
19-0201868 1540 JOYNER DR 2019-02-11 14:44:16.537 ATTEMPT TO CONTACT
19-0201866 19-01659 475 ROBINS ST 2019-02-11 14:11:49.690 DISTURBANCE
19-0201865 19-01658 1209 E OAK ST 2019-02-11 14:10:52.190 ACCIDENT - PROPERTY DAMAGE
19-0201864 975 E OAK ST 2019-02-11 14:08:19.463 CHECK ON THE WELFARE
19-0201863 3505 CLEARWELL RD 2019-02-11 14:02:16.670 SUPPLEMENT REPORT CALL
19-0201860 19-01656 2100 WEEMS ST 2019-02-11 13:54:32.457 ACCIDENT - PROPERTY DAMAGE
19-0201859 1001 MCNUTT RD 2019-02-11 13:53:05.033 THEFT OF PROPERTY
19-0201857 19-01654 1155 SKYLINE DR 2019-02-11 13:36:14.757 ACCIDENT - PRIVATE PROPERTY
19-0201856 27 REBECCA LN 2019-02-11 13:34:15.633 ALARM
19-0201853 1440 DAVE WARD DR 2019-02-11 13:22:48.340 HARASSING COMMUNICATIONS
19-0201852 19-01655 2028 ROBINSON AV 2019-02-11 13:19:53.837 CRIMINAL MISCHIEF
19-0201851 19-01652 650 SKYLINE DR 2019-02-11 13:11:30.703 ACCIDENT - HIT AND RUN
19-0201850 19-01651 955 WAKEFIELD DR 2019-02-11 13:11:03.700 ACCIDENT - PRIVATE PROPERTY
19-0201849 1985 RICH SMITH LN 2019-02-11 13:08:21.223 ATTEMPT TO CONTACT
19-0201848 19-01653 3505 CLEARWELL RD 2019-02-11 12:58:44.003 SUSPICIOUS ACTIVITY
19-0201846 605 1ST AV 2019-02-11 12:35:32.913 CHECK ON THE WELFARE
19-0201844 1127 HARKRIDER ST 2019-02-11 12:30:37.523 VEHICLE TOW
19-0201843 1435 HUEBNER ST 2019-02-11 12:27:13.600 ALARM
19-0201842 1117 GUM ST 2019-02-11 12:12:08.140 CHECK ON THE WELFARE
19-0201841 205 DONAGHEY AV 2019-02-11 12:08:14.030 STALLED VEHICLE
19-0201840 2200 MEADOWLAKE RD 2019-02-11 12:05:41.693 SUSPICIOUS ACTIVITY
19-0201839 1700 MEADOWLAKE RD 2019-02-11 11:57:19.137 PARKING VIOLATION
19-0201837 3200 TURTLE HILL CV 2019-02-11 11:55:04.070 911 HANGUP CALL
19-0201836 350 S DAVIS ST 2019-02-11 11:51:49.897 ATTEMPT TO CONTACT
19-0201834 301 COMMERCE RD 2019-02-11 11:30:39.737 SUPPLEMENT REPORT CALL
19-0201830 1620 MIDDLE RD 2019-02-11 11:14:50.953 FRAUD
19-0201827 2535 DONAGHEY AV 2019-02-11 11:03:32.257 CHECK ON THE WELFARE
19-0201824 133 I40EB 2019-02-11 10:59:23.683 ACCIDENT - PERSONAL INJURY
19-0201823 100 FARRIS RD 2019-02-11 10:54:43.990 SUPPLEMENT REPORT CALL
19-0201822 19-01648 2905 COLLINS DR 2019-02-11 10:47:21.210 FRAUD
19-0201821 300 CONWAY BLVD 2019-02-11 10:37:11.123 WEATHER RELATED CALLS-PROBLEMS
19-0201820 1460 SOUTHERN HILLS DR 2019-02-11 10:32:49.883 ATTEMPT TO CONTACT
19-0201819 1835 OTT MEMORIAL BLVD 2019-02-11 10:24:06.873 REPOSSESSION
19-0201817 19-01647 1470 ANGELINE DR 2019-02-11 10:14:38.190 LOST PROPERTY
19-0201816 1025 S DONAGHEY AV 2019-02-11 10:14:23.057 DOMESTIC DISTURBANCE
19-0201815 675 AMITY RD 2019-02-11 09:48:07.447 ACCIDENT - PROPERTY DAMAGE
19-0201814 2905 COLLINS DR 2019-02-11 09:47:24.670 FRAUD
19-0201813 19-01644 5 MANCHESTER DR 2019-02-11 09:27:41.187 BREAKING OR ENTERING
19-0201808 19-01643 3602 OLD MORRILTON HWY 2019-02-11 09:18:27.943 ACCIDENT - PERSONAL INJURY
19-0201803 1000 PRAIRIE ST 2019-02-11 08:56:33.277 PARKING VIOLATION
19-0201800 1299 MATTISON RD 2019-02-11 08:51:24.893 WEATHER RELATED CALLS-PROBLEMS
19-0201798 705 4TH ST 2019-02-11 08:42:53.350 FOUND PROPERTY
19-0201797 27 REBECCA LN 2019-02-11 08:26:30.637 ALARM
19-0201796 19-01641 1525 CLIFTON ST 2019-02-11 08:25:50.217 TRESPASSING
19-0201794 2100 WEEMS ST 2019-02-11 08:20:25.610 TRAFFIC PROBLEM-CONTROL
19-0201793 2024 ROBINSON AV 2019-02-11 08:06:46.713 ABANDONED VEHICLE
19-0201792 19-01639 1010 E OAK ST 2019-02-11 08:05:35.970 ACCIDENT - PROPERTY DAMAGE
19-0201791 1924 COLLEGE AV 2019-02-11 08:02:50.873 DOMESTIC DISTURBANCE
19-0201790 912 DONAGHEY AV 2019-02-11 08:02:44.617 DOMESTIC DISTURBANCE
19-0201788 1901 E OAK ST 2019-02-11 07:50:40.913 ROAD RAGE
19-0201787 19-01640 3 OAK GROVE DR 2019-02-11 07:41:48.963 ABANDONED VEHICLE
19-0201785 3200 OLD MORRILTON HWY 2019-02-11 07:39:37.113 ACCIDENT - PROPERTY DAMAGE
19-0201784 1595 SOUTH GERMAN LN 2019-02-11 07:26:57.153 CHECK ON THE WELFARE
19-0201783 1405 S DONAGHEY AV 2019-02-11 07:24:53.010 THEFT OF VEHICLE
19-0201782 2155 DILLARD DR 2019-02-11 07:13:37.167 HARASSMENT
19-0201779 19-01637 860 DAVIS ST 2019-02-11 04:44:35.460 ATTEMPT TO CONTACT
19-0201778 20 KINLEY DR 2019-02-11 04:14:40.670 CHECKING PERSON
19-0201776 701 REEDY RD 2019-02-11 03:48:08.243 ATTEMPT TO CONTACT
19-0201774 1845 OLD MORRILTON HWY 2019-02-11 03:18:31.937 ALARM
19-0201773 19-01636 701 REEDY RD 2019-02-11 01:54:23.340 FIRE DEPT ASSIST
19-0201772 1651 HAIRSTON AV 2019-02-11 01:33:09.390 CHECK ON THE WELFARE
19-0201770 800 S DONAGHEY AV 2019-02-11 01:04:22.690 REPOSSESSION
19-0201769 2225 PRINCE ST 2019-02-11 00:59:38.847 ALARM
19-0201767 575 ELSINGER BLVD 2019-02-11 00:11:31.597 SUSPICIOUS PERSON
19-0201766 1670 HOSTA 2019-02-10 23:47:06.700 LOUD NOISE-MUSIC
19-0201765 3155 DAVE WARD DR 2019-02-10 23:35:01.967 ALARM
19-0201761 475 ROBINS ST 2019-02-10 22:04:02.060 BURGLARY
19-0201760 1525 CLIFTON ST 2019-02-10 21:49:14.447 CIVIL STAND BY
19-0201759 1085 S DONAGHEY AV 2019-02-10 21:43:27.740 REPOSSESSION
19-0201758 2100 DAVE WARD DR 2019-02-10 21:27:01.360 STALLED VEHICLE
19-0201757 19-01633 580 E DAVE WARD DR 2019-02-10 21:14:26.160 CHECKING PERSON
19-0201753 4055 GLENWOOD DR 2019-02-10 20:09:30.657 REPOSSESSION
19-0201752 1105 PRAIRIE ST 2019-02-10 19:44:03.033 ATTEMPT TO CONTACT
19-0201750 1701 HAIRSTON AV 2019-02-10 19:32:15.070 LOUD NOISE-MUSIC
19-0201748 19-01631 1155 SKYLINE DR 2019-02-10 19:08:18.223 ACCIDENT - HIT AND RUN
19-0201746 7 COVEWOOD DR 2019-02-10 19:00:23.573 HARASSING COMMUNICATIONS
19-0201743 1705 APPALACHAIN DR 2019-02-10 18:19:25.310 PROWLER
19-0201741 132 SHAMROCK DR 2019-02-10 17:56:07.417 ATTEMPT TO CONTACT
19-0201740 475 ROBINS ST 2019-02-10 17:51:01.750 ARMED SUBJECT
19-0201736 2135 HARKRIDER ST 2019-02-10 17:07:39.747 ALARM
19-0201734 19-01630 999 ENTERPRISE AV 2019-02-10 17:01:57.837 ACCIDENT - PROPERTY DAMAGE
19-0201733 475 ROBINS ST 2019-02-10 16:57:57.627 CHECK ON THE WELFARE
19-0201732 708 CLARA DR 2019-02-10 16:57:49.810 911 HANGUP CALL
19-0201731 100 BROOKSIDE DR 2019-02-10 16:45:15.920 DOMESTIC DISTURBANCE
19-0201730 229 OLIVER ST 2019-02-10 16:28:17.360 ALARM
19-0201729 19-01629 220 E OAK ST 2019-02-10 16:12:48.997 ACCIDENT - PRIVATE PROPERTY
19-0201727 19-01628 2603 DAVE WARD DR 2019-02-10 15:41:06.533 ABUSE
19-0201725 1940 RICH SMITH LN 2019-02-10 15:08:16.820 DOMESTIC DISTURBANCE
19-0201724 2076 SILVER SPRINGS CIR 2019-02-10 15:06:20.893 DOMESTIC DISTURBANCE
19-0201722 545 SKYLINE DR 2019-02-10 14:41:49.727 CHECK ON THE WELFARE
19-0201720 1600 WASHINGTON AV 2019-02-10 14:17:54.503 RECKLESS DRIVER
19-0201719 19-01626 475 ROBINS ST 2019-02-10 14:10:48.073 THEFT OF PROPERTY
19-0201718 615 ROBINS ST 2019-02-10 14:09:36.250 CHECKING PERSON
19-0201717 19-01625 1105 DAVE WARD DR 2019-02-10 14:03:16.857 ACCIDENT - PRIVATE PROPERTY
19-0201716 475 ROBINS ST 2019-02-10 13:50:30.487 CHECKING VEHICLE
19-0201714 965 CARSON CV 2019-02-10 13:16:06.140 ALARM
19-0201713 25 NABCO DR 2019-02-10 12:48:32.490 ALARM - HOLD UP or PANIC
19-0201712 132 SHAMROCK DR 2019-02-10 12:45:09.350 DOMESTIC DISTURBANCE
19-0201711 220 E OAK ST 2019-02-10 12:24:50.620 ATTEMPT TO CONTACT
19-0201706 850 SIMON ST 2019-02-10 12:00:22.743 ALARM
19-0201705 260 S MITCHELL ST 2019-02-10 11:45:58.263 ATTEMPT TO CONTACT
19-0201703 475 ROBINS ST 2019-02-10 11:42:22.390 ATTEMPT TO CONTACT
19-0201701 475 ROBINS ST 2019-02-10 11:24:27.263 CHECKING VEHICLE
19-0201700 19-01622 500 SOUTH GERMAN LN 2019-02-10 11:18:33.483 MISDEMEANOR WARRANT SERVICE
19-0201699 475 ROBINS ST 2019-02-10 11:16:44.360 CHECK ON THE WELFARE
19-0201698 210 SOUTH HAMPTON DR 2019-02-10 11:05:17.957 ATTEMPT TO CONTACT
19-0201697 19-01623 500 SOUTH GERMAN LN 2019-02-10 10:40:13.013 MISDEMEANOR WARRANT SERVICE
19-0201696 100 BROOKSIDE DR 2019-02-10 10:24:16.090 ATTEMPT TO CONTACT
19-0201694 1825 E OAK ST 2019-02-10 09:55:07.427 ALARM
19-0201690 1701 HAIRSTON AV 2019-02-10 09:09:24.040 LOUD NOISE-MUSIC
19-0201688 580 E DAVE WARD DR 2019-02-10 08:55:32.180 CHECKING VEHICLE
19-0201686 501 ELSINGER BLVD 2019-02-10 08:17:30.230 ATTEMPT TO CONTACT
19-0201685 475 ROBINS ST 2019-02-10 06:20:56.127 LOUD NOISE-MUSIC
19-0201684 19-01619 1161 OLD MORRILTON HWY 2019-02-10 06:11:46.537 BREAKING OR ENTERING
19-0201683 955 SOUTH GERMAN LN 2019-02-10 05:07:19.973 DISTURBANCE
19-0201682 799 S COUNTRY CLUB RD 2019-02-10 04:28:46.540 ATTEMPT TO CONTACT
19-0201681 799 S COUNTRY CLUB RD 2019-02-10 03:36:47.950 STALLED VEHICLE
19-0201680 1095 SKYLINE DR 2019-02-10 03:35:40.107 HARASSMENT
19-0201679 19-01618 2255 E OAK ST 2019-02-10 03:18:53.460 CHECKING VEHICLE
19-0201678 500 OAK ST 2019-02-10 03:11:53.507 CHECKING PERSON
19-0201676 2618 W MARTIN ST 2019-02-10 03:05:25.250 AGENCY ASSIST
19-0201675 1155 SKYLINE DR 2019-02-10 03:05:00.617 CHECKING VEHICLE
19-0201674 19-01617 740 S SALEM RD 2019-02-10 03:04:40.337 FORGERY
19-0201673 2050 DAVE WARD DR 2019-02-10 02:38:00.720 CHECKING PERSON
19-0201668 19-01616 1701 HUTTO ST 2019-02-10 01:03:35.340 BATTERY REPORT
19-0201667 225 S DONAGHEY AV 2019-02-10 00:56:57.520 SHOTS FIRED
19-0201666 1200 S AMITY RD 2019-02-10 00:48:48.770 LOST PROPERTY
19-0201665 19-01614 2302 COLLEGE AV 2019-02-10 00:46:40.680 BATTERY REPORT
19-0201663 599 4TH AV 2019-02-10 00:13:49.903 LOUD NOISE-MUSIC
19-0201662 19-01612 2505 BLANEY HILL RD 2019-02-10 00:05:37.237 CHECK ON THE WELFARE
19-0201660 19-01613 1701 DONAGHEY AV 2019-02-09 23:56:14.353 SUPPLEMENT REPORT CALL
19-0201657 19-01611 1701 DONAGHEY AV 2019-02-09 23:15:22.673 RUNAWAY
19-0201656 1720 OLD MORRILTON HWY 2019-02-09 23:12:15.847 CHECKING PERSON
19-0201655 2845 PEBBLE BEACH DR 2019-02-09 23:05:52.270 LOUD NOISE-MUSIC
19-0201654 19-01610 580 E DAVE WARD DR 2019-02-09 23:03:59.980 CHECKING PERSON
19-0201653 2585 DONAGHEY AV 2019-02-09 23:03:25.317 CHECKING PERSON
19-0201652 545 E DAVE WARD DR 2019-02-09 22:55:33.553 CHECKING PERSON
19-0201649 2125 SPRING VALLEY DR 2019-02-09 22:44:20.380 CHECKING VEHICLE
19-0201647 1010 MAIN ST 2019-02-09 22:36:08.693 DISTURBANCE
19-0201646 1740 S SALEM RD 2019-02-09 22:24:54.710 SUSPICIOUS PERSON
19-0201644 545 E DAVE WARD DR 2019-02-09 21:46:38.793 CHECKING PERSON
19-0201643 19-01609 675 AMITY RD 2019-02-09 21:35:48.067 AGENCY ASSIST
19-0201641 1215 WATKINS ST 2019-02-09 21:32:15.343 BURGLARY
19-0201640 545 E DAVE WARD DR 2019-02-09 21:31:33.850 CHECKING VEHICLE
19-0201637 19-01608 1775 OLD MORRILTON HWY 2019-02-09 21:02:58.197 CHECKING VEHICLE
19-0201636 1701 HAIRSTON AV 2019-02-09 20:59:30.263 LOUD NOISE-MUSIC
19-0201635 955 COVINGTON WAY 2019-02-09 20:56:58.893 STALLED VEHICLE
19-0201633 19-01607 1155 SKYLINE DR 2019-02-09 20:42:09.097 CHECKING VEHICLE
19-0201632 350 E OAK ST 2019-02-09 20:40:43.360 STALLED VEHICLE
19-0201630 1525 CLIFTON ST 2019-02-09 19:41:54.803 HARASSMENT
19-0201629 4535 HAWKINS DR 2019-02-09 19:34:17.330 ATTEMPT TO CONTACT
19-0201628 1826 HOGAN LN 2019-02-09 19:19:59.480 CIVIL STAND BY
19-0201625 19-01606 800 S DONAGHEY AV 2019-02-09 18:30:51.260 ACCIDENT - PROPERTY DAMAGE
19-0201624 19-01605 500 AMITY RD 2019-02-09 18:27:39.477 ACCIDENT - PRIVATE PROPERTY
19-0201623 3 W ROCKWOOD DR 2019-02-09 18:22:13.317 CHECK ON THE WELFARE
19-0201621 1627 E OAK ST 2019-02-09 17:46:56.370 UNKNOWN TROUBLE
19-0201620 19-01603 3900 DAVE WARD DR 2019-02-09 17:27:04.257 SHOPLIFTING
19-0201619 19-01604 1175 MORNINGSIDE DR 2019-02-09 17:24:48.223 FIRE DEPT ASSIST
19-0201618 545 E DAVE WARD DR 2019-02-09 17:18:03.383 ENDANGERING WELFARE OF MINOR
19-0201616 19-01601 2102 LOOKOUT AV 2019-02-09 17:02:41.280 HARASSING COMMUNICATIONS
19-0201615 19-01602 575 ELSINGER BLVD 2019-02-09 16:59:51.503 FRAUD
19-0201614 19-01600 1809 BILL LUCY DR 2019-02-09 16:57:48.183 THEFT OF PROPERTY
19-0201609 1606 SOUTH BLVD 2019-02-09 16:05:13.797 LOST PROPERTY
19-0201608 1704 CLIFTON ST 2019-02-09 15:53:45.460 PARKING VIOLATION
19-0201607 525 SKYLINE DR 2019-02-09 15:30:18.250 ATTEMPT TO CONTACT
19-0201606 19-01599 1601 TYLER ST 2019-02-09 15:20:28.723 ACCIDENT - HIT AND RUN
19-0201605 19-01597 3685 GRESHAM DR 2019-02-09 15:05:13.497 LOST-STOLEN LICENSE PLATE
19-0201604 19-01598 475 ROBINS ST 2019-02-09 14:40:34.623 CHECKING PERSON
19-0201602 2019-02-09 14:38:42.973 RECOVERED VEHICLE
19-0201601 19-01596 1826 HOGAN LN 2019-02-09 14:23:56.433 DOMESTIC DISTURBANCE
19-0201600 1105 PRAIRIE ST 2019-02-09 14:22:53.363 ATTEMPT TO CONTACT
19-0201599 3034 DONNELL RIDGE RD 2019-02-09 14:17:14.327 DOMESTIC DISTURBANCE
19-0201598 1600 FLEMING ST 2019-02-09 14:04:42.293 ATTEMPT TO CONTACT
19-0201597 19-01594 340 S BARIDON ST 2019-02-09 14:00:46.077 CIVIL MATTER
19-0201596 19-01593 1801 STURGIS RD 2019-02-09 13:55:56.630 ACCIDENT - PROPERTY DAMAGE
19-0201595 19-01592 1000 S AMITY RD 2019-02-09 13:53:57.960 ACCIDENT - PROPERTY DAMAGE
19-0201594 1955 KEATHLEY DR 2019-02-09 13:51:12.397 ATTEMPT TO CONTACT
19-0201593 1101 FENDLEY DR 2019-02-09 13:45:29.507 ATTEMPT TO CONTACT
19-0201592 1821 SCOTT ST 2019-02-09 13:24:56.757 ATTEMPT TO CONTACT
19-0201591 19-01591 815 E OAK ST 2019-02-09 13:19:57.420 FOUND PROPERTY
19-0201590 2019-02-09 13:17:03.760 ATTEMPT TO CONTACT
19-0201589 19-01595 915 INGRAM ST 2019-02-09 13:14:51.737 CHECK ON THE WELFARE
19-0201588 867 FENDLEY DR 2019-02-09 13:06:59.897 CIVIL STAND BY
19-0201587 623 MITCHELL ST 2019-02-09 13:06:21.990 ALARM
19-0201586 810 MUSEUM RD 2019-02-09 13:01:15.790 CHECK ON THE WELFARE
19-0201585 800 ASH ST 2019-02-09 13:00:54.013 SUSPICIOUS PERSON
19-0201583 19-01590 900 COURT ST 2019-02-09 12:48:12.277 ACCIDENT - PROPERTY DAMAGE
19-0201582 905 SKYLINE DR 2019-02-09 12:33:35.317 FOUND PROPERTY
19-0201580 2019-02-09 12:11:56.497 RECOVERED VEHICLE
19-0201578 19-01588 1155 SKYLINE DR 2019-02-09 11:26:37.073 ACCIDENT - PROPERTY DAMAGE
19-0201575 1620 WESTLAKE DR 2019-02-09 10:39:59.803 ATTEMPT TO CONTACT
19-0201574 126 OAK ST 2019-02-09 10:31:37.603 THEFT OF SERVICES
19-0201573 3705 MARLEIGH DR 2019-02-09 10:25:08.663 ATTEMPT TO CONTACT
19-0201571 4965 DOVER LN 2019-02-09 10:02:43.420 ALARM
19-0201570 200 S HARKRIDER DR 2019-02-09 09:59:19.353 CHECKING PERSON
19-0201569 1651 HAIRSTON AV 2019-02-09 09:58:05.740 CHECK ON THE WELFARE
19-0201568 19-01587 1161 OLD MORRILTON HWY 2019-02-09 09:39:26.170 ACCIDENT - PRIVATE PROPERTY
19-0201567 19-01586 1890 E OAK ST 2019-02-09 09:37:15.477 FRAUD
19-0201566 19-01584 127 I40EB 2019-02-09 09:04:13.080 ACCIDENT - PROPERTY DAMAGE
19-0201565 612 GARLAND ST 2019-02-09 09:00:48.343 ALARM
19-0201562 1400 OLD MORRILTON HWY 2019-02-09 08:21:26.317 ALARM
19-0201557 220 E OAK ST 2019-02-09 08:05:08.080 RECKLESS DRIVER
19-0201556 19-01582 1600 FLEMING ST 2019-02-09 08:05:07.800 BREAKING OR ENTERING
19-0201555 711 5TH ST 2019-02-09 07:15:51.423 ATTEMPT TO CONTACT
19-0201554 2430 SANDERS ST 2019-02-09 07:10:33.387 ATTEMPT TO CONTACT
19-0201552 1200 SALEM RD 2019-02-09 05:05:44.637 SUSPICIOUS PERSON
19-0201551 207 WILLOW ST 2019-02-09 04:52:45.707 ATTEMPT TO CONTACT
19-0201548 1485 OLD MORRILTON HWY 2019-02-09 04:02:57.337 911 HANGUP CALL
19-0201546 1845 OLD MORRILTON HWY 2019-02-09 03:09:05.900 ALARM
19-0201545 19-01580 2050 DAVE WARD DR 2019-02-09 02:22:24.230 CHECKING VEHICLE
19-0201541 2260 SANDERS ST 2019-02-09 01:56:59.150 CHECKING VEHICLE
19-0201536 701 4TH ST 2019-02-09 01:15:38.703 CHECKING PERSON
19-0201535 260 SALEM RD 2019-02-09 01:10:51.287 CHECKING VEHICLE
19-0201533 1209 JERSEY ST 2019-02-09 00:54:59.883 CHECKING PERSON
19-0201531 517 3RD ST 2019-02-09 00:39:18.743 CHECKING VEHICLE
19-0201528 19-01579 302 ANGUS ST 2019-02-09 00:13:56.090 DISTURBANCE
19-0201527 100 GRANDVIEW HEIGHTS DR 2019-02-09 00:09:09.220 CHECKING VEHICLE
19-0201525 1650 NUTHATCH CIR 2019-02-08 23:37:05.930 ATTEMPT TO CONTACT
19-0201524 401 2ND ST 2019-02-08 23:20:51.690 CHECKING VEHICLE
19-0201523 1611 E OAK ST 2019-02-08 22:57:58.383 LOUD NOISE-MUSIC
19-0201520 2125 HARKRIDER ST 2019-02-08 22:38:45.830 CHECKING VEHICLE
19-0201519 1650 NUTHATCH CIR 2019-02-08 22:29:07.537 MISSING PERSON
19-0201517 711 6TH ST 2019-02-08 22:08:25.220 ATTEMPT TO CONTACT
19-0201515 19-01578 500 SOUTH GERMAN LN 2019-02-08 21:53:04.160 MISDEMEANOR WARRANT SERVICE
19-0201514 2300 PRINCE ST 2019-02-08 21:52:21.090 INTOXICATED DRIVER
19-0201513 2965 BILLY JACK DR 2019-02-08 21:50:06.787 CHECK ON THE WELFARE
19-0201512 2610 HARBELLE DR 2019-02-08 21:30:30.133 ALARM
19-0201509 2 MEADOWBROOK DR 2019-02-08 21:11:32.340 SUSPICIOUS VEHICLE
19-0201507 540 UNITED DR 2019-02-08 20:56:48.550 ALARM - HOLD UP or PANIC
19-0201505 1405 S DONAGHEY AV 2019-02-08 20:35:25.580 CHECK ON THE WELFARE
19-0201502 1105 PRAIRIE ST 2019-02-08 19:44:34.653 ATTEMPT TO CONTACT
19-0201501 475 ROBINS ST 2019-02-08 19:35:46.200 BATTERY REPORT
19-0201500 1702 SIMMS ST 2019-02-08 19:33:32.240 SUSPICIOUS PERSON
19-0201497 1340 OLD MORRILTON HWY 2019-02-08 19:13:52.127 DISTURBANCE
19-0201496 401 2ND ST 2019-02-08 19:12:08.010 DISTURBANCE
19-0201494 19-01576 1909 BRUCE ST 2019-02-08 18:54:03.320 HARASSMENT
19-0201493 1278 S AMITY RD 2019-02-08 18:51:58.520 LOITERING
19-0201492 810 CRAIN DR 2019-02-08 18:34:46.743 TRAFFIC PROBLEM-CONTROL
19-0201491 19-01575 622 4TH AV 2019-02-08 18:30:52.867 DOMESTIC DISTURBANCE
19-0201490 19-01574 1155 DAVE WARD DR 2019-02-08 18:16:02.897 ACCIDENT - PRIVATE PROPERTY
19-0201488 126 OAK ST 2019-02-08 18:09:52.940 THEFT OF SERVICES
19-0201486 19-01573 201 SKYLINE DR 2019-02-08 17:56:20.847 ACCIDENT - PROPERTY DAMAGE
19-0201485 1001 SALEM RD 2019-02-08 17:53:06.483 TRAFFIC PROBLEM-CONTROL
19-0201483 1220 E OAK ST 2019-02-08 17:50:40.467 ATTEMPT TO CONTACT
19-0201481 600 SKYLINE DR 2019-02-08 17:45:04.830 RECKLESS DRIVER
19-0201480 1310 SALEM RD 2019-02-08 17:42:59.173 CIVIL MATTER
19-0201479 19-01572 4535 UTAH TRL 2019-02-08 17:41:28.240 LOST-STOLEN LICENSE PLATE
19-0201478 812 OAK ST 2019-02-08 17:34:01.203 CHECK ON THE WELFARE
19-0201477 1004 OAK ST 2019-02-08 17:28:18.377 SUSPICIOUS PERSON
19-0201476 1001 SKYLINE DR 2019-02-08 17:23:10.943 RECKLESS DRIVER
19-0201474 1000 EAST GERMAN LN 2019-02-08 17:19:34.960 RECKLESS DRIVER
19-0201472 1701 HAIRSTON AV 2019-02-08 17:10:27.413 HARASSMENT
19-0201471 19-01571 1901 E OAK ST 2019-02-08 17:08:58.163 ACCIDENT - PROPERTY DAMAGE
19-0201470 501 ELSINGER BLVD 2019-02-08 17:07:33.753 SUPPLEMENT REPORT CALL
19-0201469 2002 MICHELLE CIR 2019-02-08 17:06:40.573 ATTEMPT TO CONTACT
19-0201468 126 OAK ST 2019-02-08 17:02:22.000 CHECK ON THE WELFARE
19-0201466 131 GRAND FALLS 2019-02-08 16:39:02.657 ATTEMPT TO CONTACT
19-0201465 19-01570 101 OAK ST 2019-02-08 16:38:04.857 FRAUD
19-0201463 32 MACARTHUR DR 2019-02-08 16:32:40.250 ATTEMPT TO CONTACT
19-0201459 1001 SALEM RD 2019-02-08 16:11:50.260 STALLED VEHICLE
19-0201458 3002 PRINCE ST 2019-02-08 16:03:13.913 STALLED VEHICLE
19-0201457 19-01568 501 ELSINGER BLVD 2019-02-08 15:48:33.757 THEFT OF PROPERTY
19-0201455 2399 STOUT ST 2019-02-08 15:40:54.990 TERRORISTIC THREATENING
19-0201453 1405 S DONAGHEY AV 2019-02-08 15:29:59.333 ATTEMPT TO CONTACT
19-0201452 2500 DAVE WARD DR 2019-02-08 15:29:47.727 RECKLESS DRIVER
19-0201451 711 5TH ST 2019-02-08 15:25:34.450 ATTEMPT TO CONTACT
19-0201448 3700 IRBY DR 2019-02-08 15:19:00.333 ALARM
19-0201447 1417 CLIFTON ST 2019-02-08 15:13:35.830 ATTEMPT TO CONTACT
19-0201446 2006 MARILYN DR 2019-02-08 15:01:27.650 ATTEMPT TO CONTACT
19-0201443 475 ROBINS ST 2019-02-08 14:23:03.767 ATTEMPT TO CONTACT
19-0201442 2302 COLLEGE AV 2019-02-08 14:16:02.563 RUNAWAY
19-0201441 1912 HUTTO ST 2019-02-08 14:15:49.270 DOMESTIC DISTURBANCE
19-0201440 955 SOUTH GERMAN LN 2019-02-08 14:14:05.250 ATTEMPT TO CONTACT
19-0201439 10 EVE LN 2019-02-08 14:09:41.513 ALARM
19-0201438 19-01566 1821 SCOTT ST 2019-02-08 14:05:28.200 RUNAWAY
19-0201436 1112 OAK ST 2019-02-08 13:59:01.210 CHECK ON THE WELFARE
19-0201435 475 ROBINS ST 2019-02-08 13:55:25.490 ATTEMPT TO CONTACT
19-0201433 5380 APRIL DR 2019-02-08 13:47:25.040 ALARM
19-0201432 19-01564 1120 EAST GERMAN LN 2019-02-08 13:39:29.033 THEFT OF PROPERTY
19-0201431 1485 OLD MORRILTON HWY 2019-02-08 13:32:02.480 THEFT OF SERVICES
19-0201429 2695 DAVE WARD DR 2019-02-08 13:23:42.293 DOMESTIC DISTURBANCE
19-0201426 1110 AUTUMNWOOD DR 2019-02-08 13:08:32.950 ATTEMPT TO CONTACT
19-0201422 621 OAK ST 2019-02-08 12:41:41.130 FRAUD
19-0201418 2205 STOUT ST 2019-02-08 12:30:49.653 ATTEMPT TO CONTACT
19-0201417 19-01559 11 MANCHESTER DR 2019-02-08 12:23:47.470 FRAUD
19-0201414 305 S BARIDON ST 2019-02-08 12:16:00.090 ATTEMPT TO CONTACT
19-0201413 610 EAST GERMAN LN 2019-02-08 12:08:11.680 TRESPASSING
19-0201412 475 ROBINS ST 2019-02-08 12:01:22.537 DOMESTIC DISTURBANCE
19-0201411 3900 DAVE WARD DR 2019-02-08 12:00:44.753 SERVING SUBPOENA
19-0201410 19-01560 610 4TH AV 2019-02-08 11:58:12.420 FRAUD
19-0201408 19-01556 1301 MAIN ST 2019-02-08 11:54:49.010 ACCIDENT - PROPERTY DAMAGE
19-0201405 799 S HOGAN LN 2019-02-08 11:46:36.827 ATTEMPT TO CONTACT
19-0201402 707 ROBINS ST 2019-02-08 11:29:46.563 ATTEMPT TO CONTACT
19-0201400 19-01555 1155 SKYLINE DR 2019-02-08 11:22:37.093 ACCIDENT - PRIVATE PROPERTY
19-0201399 3705 MARLEIGH DR 2019-02-08 11:22:29.013 ATTEMPT TO CONTACT
19-0201398 2019-02-08 11:22:03.817 RECOVERED PROPERTY
19-0201396 1500 HARKRIDER ST 2019-02-08 11:21:48.513 RECKLESS DRIVER
19-0201394 2032 FOSTER DR 2019-02-08 10:49:07.473 ATTEMPT TO CONTACT
19-0201393 19-01554 414 OAK ST 2019-02-08 10:47:46.070 FRAUD
19-0201392 19-01550 799 S HOGAN LN 2019-02-08 10:45:26.683 ACCIDENT - HIT AND RUN
19-0201390 19-01551 1000 S AMITY RD 2019-02-08 10:41:04.230 ACCIDENT - PROPERTY DAMAGE
19-0201389 3170 PEBBLE BEACH DR 2019-02-08 10:30:10.553 ATTEMPT TO CONTACT
19-0201387 19-01553 1475 HOGAN LN 2019-02-08 10:27:48.467 MISDEMEANOR WARRANT SERVICE
19-0201385 19-01548 1025 WATKINS ST 2019-02-08 10:15:29.740 MISDEMEANOR WARRANT SERVICE
19-0201384 415 S ASH ST 2019-02-08 10:14:01.613 ATTEMPT TO CONTACT
19-0201383 2550 PRINCE ST 2019-02-08 10:13:16.453 FOUND PROPERTY
19-0201380 855 S SALEM RD 2019-02-08 09:42:11.057 HARASSMENT
19-0201377 813 OAK ST 2019-02-08 09:30:13.670 CHECKING PERSON
19-0201371 880 CORDOBA DR 2019-02-08 09:05:33.890 ALARM
19-0201368 301 COMMERCE RD 2019-02-08 08:57:01.537 ATTEMPT TO CONTACT
19-0201366 19-01544 475 ROBINS ST 2019-02-08 08:34:08.743 MISDEMEANOR WARRANT SERVICE
19-0201365 3075 PEBBLE BEACH DR 2019-02-08 08:27:42.843 CRIMINAL MISCHIEF
19-0201363 2150 HARKRIDER ST 2019-02-08 08:16:54.113 STALLED VEHICLE
19-0201362 19-01543 2560 DONAGHEY AV 2019-02-08 08:13:11.577 FRAUD
19-0201361 2301 TYLER ST 2019-02-08 08:09:02.193 STALLED VEHICLE
19-0201359 875 SKYLINE DR 2019-02-08 08:08:05.457 ATTEMPT TO CONTACT
19-0201357 1620 WESTLAKE DR 2019-02-08 07:50:45.570 AGENCY ASSIST
19-0201355 19-01541 900 EXCHANGE AV 2019-02-08 07:47:50.693 ACCIDENT - PROPERTY DAMAGE
19-0201354 19-01540 2200 PRINCE ST 2019-02-08 07:40:35.917 ACCIDENT - PROPERTY DAMAGE
19-0201353 815 E OAK ST 2019-02-08 07:27:08.143 ATTEMPT TO CONTACT
19-0201352 475 ROBINS ST 2019-02-08 07:11:34.807 THEFT OF VEHICLE
19-0201351 19-01539 815 E OAK ST 2019-02-08 07:00:41.753 FELONY WARRANT SERVICE
19-0201349 1270 DON'S LN 2019-02-08 04:59:52.880 ALARM
19-0201348 1435 BERMUDA ST 2019-02-08 04:34:40.013 ALARM
19-0201347 155 FARRIS RD 2019-02-08 04:11:50.310 CHECKING VEHICLE
19-0201346 310 FARRIS RD 2019-02-08 04:03:10.263 CHECK ON THE WELFARE
19-0201344 4095 PRINCE ST 2019-02-08 02:33:40.240 PURSUIT DRILL
19-0201343 1845 OLD MORRILTON HWY 2019-02-08 02:25:30.990 ALARM
19-0201340 1435 BERMUDA ST 2019-02-08 01:41:16.977 ALARM
19-0201339 800 PADGETT RD 2019-02-08 01:40:04.203 ALARM
19-0201338 1435 BERMUDA ST 2019-02-08 01:13:08.517 ALARM
19-0201337 2550 PRINCE ST 2019-02-08 00:54:59.193 ALARM
19-0201336 1065 CLAYTON ST 2019-02-08 00:49:43.370 CHECKING PERSON
19-0201335 1065 CLAYTON ST 2019-02-08 00:26:00.470 CHECKING PERSON
19-0201334 475 ROBINS ST 2019-02-08 00:21:01.117 DOMESTIC DISTURBANCE
19-0201333 2205 STOUT ST 2019-02-08 00:04:09.590 SUSPICIOUS ACTIVITY
Call Number Case Number Address Call Time Incident Type

General Contacts

POLICE HEADQUARTERS
1105 Prairie Street
Conway, AR 72032

Conway Police Department


  911 (EMERGENCIES ONLY)

  501.450.6120 (non-emergency)

ANONYMOUS TIPS
 Leave a message at 501.450.6135
 Text CONWAY and your tip to 274637 (CRIMES) Click for an Example

   

City of Conway

We, the members of the Conway Police Department, are committed to protecting and serving the citizens of Conway, Arkansas. That is our highest calling, as we pledge to join hands with others in carrying out our sworn duty to uphold the law.

Chief Jody Spradlin

Latest Tweets